Time,TemperatureF,DewpointF,PressureIn,WindDirection,WindDirectionDegrees,WindSpeedMPH,WindSpeedGustMPH,Humidity,HourlyPrecipIn,Conditions,Clouds,dailyrainin,SoftwareType,DateUTC
2013-03-15 00:00:00,60.9,52.6,30.16,South,181,5.0,5.0,74,0.00,,,0.00,Wunderground v.1.15,2013-03-15 05:00:00,
2013-03-15 00:02:00,60.9,52.9,30.16,South,179,4.0,16.0,75,0.00,,,0.00,Wunderground v.1.15,2013-03-15 05:02:00,
2013-03-15 00:03:00,60.9,52.9,30.16,South,179,4.0,16.0,75,0.00,,,0.00,Wunderground v.1.15,2013-03-15 05:03:00,
2013-03-15 00:07:00,60.7,52.7,30.16,SSW,198,4.0,16.0,75,0.00,,,0.00,Wunderground v.1.15,2013-03-15 05:07:00,
2013-03-15 00:08:00,60.7,52.7,30.16,SE,136,4.0,16.0,75,0.00,,,0.00,Wunderground v.1.15,2013-03-15 05:08:00,
2013-03-15 00:09:00,60.7,52.7,30.16,South,188,4.0,16.0,75,0.00,,,0.00,Wunderground v.1.15,2013-03-15 05:09:00,
2013-03-15 00:13:00,60.5,52.9,30.16,South,185,5.0,13.0,76,0.00,,,0.00,Wunderground v.1.15,2013-03-15 05:13:00,
2013-03-15 00:14:00,60.5,52.5,30.16,South,169,6.0,13.0,75,0.00,,,0.00,Wunderground v.1.15,2013-03-15 05:14:00,
2013-03-15 00:19:00,60.4,52.8,30.16,South,178,6.0,13.0,76,0.00,,,0.00,Wunderground v.1.15,2013-03-15 05:19:00,
2013-03-15 00:22:00,60.4,52.8,30.16,South,175,5.0,16.0,76,0.00,,,0.00,Wunderground v.1.15,2013-03-15 05:22:00,
2013-03-15 00:23:00,60.4,52.8,30.16,South,178,5.0,16.0,76,0.00,,,0.00,Wunderground v.1.15,2013-03-15 05:23:00,
2013-03-15 00:25:00,60.2,52.6,30.16,SSE,152,4.0,16.0,76,0.00,,,0.00,Wunderground v.1.15,2013-03-15 05:25:00,
2013-03-15 00:31:00,60.1,52.9,30.17,South,191,3.0,3.0,77,0.00,,,0.00,Wunderground v.1.15,2013-03-15 05:31:00,
2013-03-15 00:33:00,60.1,52.9,30.17,South,191,3.0,12.0,77,0.00,,,0.00,Wunderground v.1.15,2013-03-15 05:33:00,
2013-03-15 00:34:00,59.9,52.7,30.17,South,191,2.0,12.0,77,0.00,,,0.00,Wunderground v.1.15,2013-03-15 05:34:00,
2013-03-15 00:36:00,59.9,52.7,30.17,South,191,2.0,12.0,77,0.00,,,0.00,Wunderground v.1.15,2013-03-15 05:36:00,
2013-03-15 00:39:00,59.8,52.9,30.17,SSE,160,3.0,12.0,78,0.00,,,0.00,Wunderground v.1.15,2013-03-15 05:39:00,
2013-03-15 00:40:00,59.8,52.9,30.17,South,181,2.0,12.0,78,0.00,,,0.00,Wunderground v.1.15,2013-03-15 05:40:00,
2013-03-15 00:43:00,59.8,52.9,30.17,South,182,3.0,8.0,78,0.00,,,0.00,Wunderground v.1.15,2013-03-15 05:43:00,
2013-03-15 00:48:00,59.6,52.7,30.16,SSW,198,4.0,8.0,78,0.00,,,0.00,Wunderground v.1.15,2013-03-15 05:48:00,
2013-03-15 00:49:00,59.5,52.6,30.16,SSW,198,3.0,8.0,78,0.00,,,0.00,Wunderground v.1.15,2013-03-15 05:49:00,
2013-03-15 00:51:00,59.5,52.6,30.16,SSW,198,3.0,3.0,78,0.00,,,0.00,Wunderground v.1.15,2013-03-15 05:51:00,
2013-03-15 00:52:00,59.5,53.0,30.16,SE,140,3.0,8.0,79,0.00,,,0.00,Wunderground v.1.15,2013-03-15 05:52:00,
2013-03-15 00:57:00,59.3,52.8,30.16,SSW,202,3.0,8.0,79,0.00,,,0.00,Wunderground v.1.15,2013-03-15 05:57:00,
2013-03-15 00:58:00,59.3,52.8,30.16,SSW,202,3.0,8.0,79,0.00,,,0.00,Wunderground v.1.15,2013-03-15 05:58:00,
2013-03-15 01:00:00,59.2,52.7,30.16,South,188,3.0,3.0,79,0.00,,,0.00,Wunderground v.1.15,2013-03-15 06:00:00,
2013-03-15 01:01:00,59.2,52.7,30.16,South,188,3.0,4.0,79,0.00,,,0.00,Wunderground v.1.15,2013-03-15 06:01:00,
2013-03-15 01:03:00,59.2,52.7,30.16,South,189,3.0,8.0,79,0.00,,,0.00,Wunderground v.1.15,2013-03-15 06:03:00,
2013-03-15 01:07:00,59.0,52.5,30.16,SSW,198,3.0,8.0,79,0.00,,,0.00,Wunderground v.1.15,2013-03-15 06:07:00,
2013-03-15 01:08:00,59.0,52.5,30.16,SSW,198,3.0,8.0,79,0.00,,,0.00,Wunderground v.1.15,2013-03-15 06:08:00,
2013-03-15 01:09:00,59.0,52.5,30.16,SSW,198,3.0,8.0,79,0.00,,,0.00,Wunderground v.1.15,2013-03-15 06:09:00,
2013-03-15 01:12:00,58.9,52.4,30.16,SSW,198,3.0,8.0,79,0.00,,,0.00,Wunderground v.1.15,2013-03-15 06:12:00,
2013-03-15 01:14:00,58.9,52.4,30.16,SSW,202,2.0,8.0,79,0.00,,,0.00,Wunderground v.1.15,2013-03-15 06:14:00,
2013-03-15 01:15:00,58.9,52.7,30.16,SSW,205,2.0,8.0,80,0.00,,,0.00,Wunderground v.1.15,2013-03-15 06:15:00,
2013-03-15 01:17:00,58.9,52.7,30.15,SSW,205,2.0,8.0,80,0.00,,,0.00,Wunderground v.1.15,2013-03-15 06:17:00,
2013-03-15 01:18:00,58.7,52.5,30.15,SSW,205,2.0,8.0,80,0.00,,,0.00,Wunderground v.1.15,2013-03-15 06:18:00,
2013-03-15 01:19:00,58.7,52.5,30.15,SSW,205,2.0,8.0,80,0.00,,,0.00,Wunderground v.1.15,2013-03-15 06:19:00,
2013-03-15 01:20:00,58.7,52.5,30.15,SSW,193,2.0,7.0,80,0.00,,,0.00,Wunderground v.1.15,2013-03-15 06:20:00,
2013-03-15 01:25:00,58.6,52.4,30.15,SSW,193,2.0,7.0,80,0.00,,,0.00,Wunderground v.1.15,2013-03-15 06:25:00,
2013-03-15 01:26:00,58.6,52.4,30.15,SSW,193,2.0,7.0,80,0.00,,,0.00,Wunderground v.1.15,2013-03-15 06:26:00,
2013-03-15 01:27:00,58.6,52.4,30.15,SSW,195,1.0,7.0,80,0.00,,,0.00,Wunderground v.1.15,2013-03-15 06:27:00,
2013-03-15 01:29:00,58.6,52.4,30.15,SSW,195,1.0,7.0,80,0.00,,,0.00,Wunderground v.1.15,2013-03-15 06:29:00,
2013-03-15 01:31:00,58.4,52.3,30.16,SSW,195,1.0,8.0,80,0.00,,,0.00,Wunderground v.1.15,2013-03-15 06:31:00,
2013-03-15 01:33:00,58.4,52.3,30.16,SSW,195,1.0,8.0,80,0.00,,,0.00,Wunderground v.1.15,2013-03-15 06:33:00,
2013-03-15 01:34:00,58.4,52.3,30.16,South,184,2.0,8.0,80,0.00,,,0.00,Wunderground v.1.15,2013-03-15 06:34:00,
2013-03-15 01:38:00,58.3,52.5,30.16,South,184,2.0,8.0,81,0.00,,,0.00,Wunderground v.1.15,2013-03-15 06:38:00,
2013-03-15 01:39:00,58.3,52.5,30.16,South,184,1.0,8.0,81,0.00,,,0.00,Wunderground v.1.15,2013-03-15 06:39:00,
2013-03-15 01:40:00,58.1,52.3,30.16,South,184,1.0,6.0,81,0.00,,,0.00,Wunderground v.1.15,2013-03-15 06:40:00,
2013-03-15 01:44:00,58.1,52.3,30.16,South,184,1.0,6.0,81,0.00,,,0.00,Wunderground v.1.15,2013-03-15 06:44:00,
2013-03-15 01:45:00,58.1,52.3,30.16,South,184,1.0,6.0,81,0.00,,,0.00,Wunderground v.1.15,2013-03-15 06:45:00,
2013-03-15 01:46:00,58.0,52.2,30.15,South,185,1.0,6.0,81,0.00,,,0.00,Wunderground v.1.15,2013-03-15 06:46:00,
2013-03-15 01:51:00,57.8,52.0,30.15,South,189,1.0,6.0,81,0.00,,,0.00,Wunderground v.1.15,2013-03-15 06:51:00,
2013-03-15 01:52:00,57.8,52.0,30.15,South,189,1.0,6.0,81,0.00,,,0.00,Wunderground v.1.15,2013-03-15 06:52:00,
2013-03-15 01:54:00,57.8,52.0,30.15,South,189,1.0,6.0,81,0.00,,,0.00,Wunderground v.1.15,2013-03-15 06:54:00,
2013-03-15 01:59:00,57.6,52.1,30.15,South,189,1.0,6.0,82,0.00,,,0.00,Wunderground v.1.15,2013-03-15 06:59:00,
2013-03-15 02:01:00,57.5,52.0,30.15,South,189,1.0,6.0,82,0.00,,,0.00,Wunderground v.1.15,2013-03-15 07:01:00,
2013-03-15 02:04:00,57.5,52.0,30.15,South,189,1.0,6.0,82,0.00,,,0.00,Wunderground v.1.15,2013-03-15 07:04:00,
2013-03-15 02:07:00,57.5,52.0,30.15,South,189,1.0,6.0,82,0.00,,,0.00,Wunderground v.1.15,2013-03-15 07:07:00,
2013-03-15 02:08:00,57.3,51.9,30.15,South,189,1.0,6.0,82,0.00,,,0.00,Wunderground v.1.15,2013-03-15 07:08:00,
2013-03-15 02:12:00,57.3,51.9,30.15,SSW,192,2.0,5.0,82,0.00,,,0.00,Wunderground v.1.15,2013-03-15 07:12:00,
2013-03-15 02:14:00,57.3,51.9,30.15,SSW,192,2.0,5.0,82,0.00,,,0.00,Wunderground v.1.15,2013-03-15 07:14:00,
2013-03-15 02:15:00,57.3,51.9,30.15,SSW,192,2.0,5.0,82,0.00,,,0.00,Wunderground v.1.15,2013-03-15 07:15:00,
2013-03-15 02:17:00,57.2,51.8,30.15,SSW,192,2.0,5.0,82,0.00,,,0.00,Wunderground v.1.15,2013-03-15 07:17:00,
2013-03-15 02:18:00,57.2,51.8,30.15,SSW,193,2.0,5.0,82,0.00,,,0.00,Wunderground v.1.15,2013-03-15 07:18:00,
2013-03-15 02:19:00,57.2,51.8,30.15,SSW,192,2.0,5.0,82,0.00,,,0.00,Wunderground v.1.15,2013-03-15 07:19:00,
2013-03-15 02:23:00,57.2,51.8,30.15,SSW,192,2.0,8.0,82,0.00,,,0.00,Wunderground v.1.15,2013-03-15 07:23:00,
2013-03-15 02:24:00,57.0,51.6,30.15,SSW,193,1.0,8.0,82,0.00,,,0.00,Wunderground v.1.15,2013-03-15 07:24:00,
2013-03-15 02:25:00,57.0,51.9,30.15,SSW,192,1.0,8.0,83,0.00,,,0.00,Wunderground v.1.15,2013-03-15 07:25:00,
2013-03-15 02:26:00,57.0,51.9,30.15,SSW,192,1.0,8.0,83,0.00,,,0.00,Wunderground v.1.15,2013-03-15 07:26:00,
2013-03-15 02:30:00,56.9,51.8,30.15,SSW,192,1.0,6.0,83,0.00,,,0.00,Wunderground v.1.15,2013-03-15 07:30:00,
2013-03-15 02:31:00,56.9,51.8,30.14,SSW,192,1.0,6.0,83,0.00,,,0.00,Wunderground v.1.15,2013-03-15 07:31:00,
2013-03-15 02:34:00,56.7,51.6,30.14,SSW,192,1.0,6.0,83,0.00,,,0.00,Wunderground v.1.15,2013-03-15 07:34:00,
2013-03-15 02:37:00,56.7,51.6,30.14,SSW,192,1.0,6.0,83,0.00,,,0.00,Wunderground v.1.15,2013-03-15 07:37:00,
2013-03-15 02:38:00,56.7,51.6,30.14,SSW,192,1.0,6.0,83,0.00,,,0.00,Wunderground v.1.15,2013-03-15 07:38:00,
2013-03-15 02:40:00,56.6,51.5,30.14,SSW,192,1.0,3.0,83,0.00,,,0.00,Wunderground v.1.15,2013-03-15 07:40:00,
2013-03-15 02:42:00,56.6,51.8,30.14,SSW,192,2.0,3.0,84,0.00,,,0.00,Wunderground v.1.15,2013-03-15 07:42:00,
2013-03-15 02:44:00,56.5,51.7,30.14,SSW,193,2.0,3.0,84,0.00,,,0.00,Wunderground v.1.15,2013-03-15 07:44:00,
2013-03-15 02:47:00,56.5,51.7,30.13,SSW,193,2.0,3.0,84,0.00,,,0.00,Wunderground v.1.15,2013-03-15 07:47:00,
2013-03-15 02:50:00,56.3,51.5,30.13,SSW,193,2.0,3.0,84,0.00,,,0.00,Wunderground v.1.15,2013-03-15 07:50:00,
2013-03-15 02:52:00,56.3,51.5,30.13,SSW,193,2.0,3.0,84,0.00,,,0.00,Wunderground v.1.15,2013-03-15 07:52:00,
2013-03-15 02:56:00,56.2,51.4,30.13,SSW,193,2.0,3.0,84,0.00,,,0.00,Wunderground v.1.15,2013-03-15 07:56:00,
2013-03-15 02:57:00,56.2,51.4,30.13,SSW,193,2.0,3.0,84,0.00,,,0.00,Wunderground v.1.15,2013-03-15 07:57:00,
2013-03-15 02:58:00,56.0,51.6,30.13,SSW,193,2.0,3.0,85,0.00,,,0.00,Wunderground v.1.15,2013-03-15 07:58:00,
2013-03-15 03:00:00,56.0,51.6,30.13,SSW,193,2.0,6.0,85,0.00,,,0.00,Wunderground v.1.15,2013-03-15 08:00:00,
2013-03-15 03:03:00,56.0,51.6,30.13,SSW,193,1.0,6.0,85,0.00,,,0.00,Wunderground v.1.15,2013-03-15 08:03:00,
2013-03-15 03:06:00,55.9,51.5,30.13,SSW,193,1.0,6.0,85,0.00,,,0.00,Wunderground v.1.15,2013-03-15 08:06:00,
2013-03-15 03:08:00,55.9,51.5,30.13,SSW,193,1.0,6.0,85,0.00,,,0.00,Wunderground v.1.15,2013-03-15 08:08:00,
2013-03-15 03:10:00,55.9,51.5,30.13,SSW,193,1.0,1.0,85,0.00,,,0.00,Wunderground v.1.15,2013-03-15 08:10:00,
2013-03-15 03:13:00,55.9,51.5,30.13,SSW,193,1.0,4.0,85,0.00,,,0.00,Wunderground v.1.15,2013-03-15 08:13:00,
2013-03-15 03:14:00,55.7,51.3,30.13,SSW,193,0.0,4.0,85,0.00,,,0.00,Wunderground v.1.15,2013-03-15 08:14:00,
2013-03-15 03:16:00,55.7,51.6,30.12,SSW,193,0.0,4.0,86,0.00,,,0.00,Wunderground v.1.15,2013-03-15 08:16:00,
2013-03-15 03:18:00,55.7,51.6,30.12,SSW,193,0.0,4.0,86,0.00,,,0.00,Wunderground v.1.15,2013-03-15 08:18:00,
2013-03-15 03:20:00,55.7,51.6,30.12,SSW,193,0.0,3.0,86,0.00,,,0.00,Wunderground v.1.15,2013-03-15 08:20:00,
2013-03-15 03:22:00,55.7,51.6,30.12,SSW,193,0.0,3.0,86,0.00,,,0.00,Wunderground v.1.15,2013-03-15 08:22:00,
2013-03-15 03:25:00,55.6,51.5,30.12,SSW,193,0.0,3.0,86,0.00,,,0.00,Wunderground v.1.15,2013-03-15 08:25:00,
2013-03-15 03:26:00,55.6,51.5,30.12,SSW,193,0.0,3.0,86,0.00,,,0.00,Wunderground v.1.15,2013-03-15 08:26:00,
2013-03-15 03:30:00,55.6,51.5,30.12,SSW,193,0.0,3.0,86,0.00,,,0.00,Wunderground v.1.15,2013-03-15 08:30:00,
2013-03-15 03:31:00,55.6,51.5,30.12,SSW,193,0.0,2.0,86,0.00,,,0.00,Wunderground v.1.15,2013-03-15 08:31:00,
2013-03-15 03:35:00,55.6,51.5,30.12,SSW,195,0.0,2.0,86,0.00,,,0.00,Wunderground v.1.15,2013-03-15 08:35:00,
2013-03-15 03:37:00,55.6,51.5,30.12,SSW,195,1.0,2.0,86,0.00,,,0.00,Wunderground v.1.15,2013-03-15 08:37:00,
2013-03-15 03:38:00,55.6,51.5,30.12,SSW,195,1.0,2.0,86,0.00,,,0.00,Wunderground v.1.15,2013-03-15 08:38:00,
2013-03-15 03:40:00,55.7,51.6,30.12,SSW,195,1.0,2.0,86,0.00,,,0.00,Wunderground v.1.15,2013-03-15 08:40:00,
2013-03-15 03:42:00,55.7,51.6,30.12,SSW,196,1.0,3.0,86,0.00,,,0.00,Wunderground v.1.15,2013-03-15 08:42:00,
2013-03-15 03:43:00,55.7,51.6,30.12,SSW,196,1.0,3.0,86,0.00,,,0.00,Wunderground v.1.15,2013-03-15 08:43:00,
2013-03-15 03:45:00,55.7,51.6,30.12,SSW,196,2.0,3.0,86,0.00,,,0.00,Wunderground v.1.15,2013-03-15 08:45:00,
2013-03-15 03:47:00,55.7,51.6,30.12,SSW,196,1.0,3.0,86,0.00,,,0.00,Wunderground v.1.15,2013-03-15 08:47:00,
2013-03-15 03:48:00,55.7,51.6,30.12,SSW,196,1.0,3.0,86,0.00,,,0.00,Wunderground v.1.15,2013-03-15 08:48:00,
2013-03-15 03:53:00,55.7,51.6,30.12,SSW,198,2.0,6.0,86,0.00,,,0.00,Wunderground v.1.15,2013-03-15 08:53:00,
2013-03-15 03:54:00,55.7,51.6,30.12,SSW,198,2.0,6.0,86,0.00,,,0.00,Wunderground v.1.15,2013-03-15 08:54:00,
2013-03-15 03:55:00,55.7,51.6,30.12,SSW,198,2.0,6.0,86,0.00,,,0.00,Wunderground v.1.15,2013-03-15 08:55:00,
2013-03-15 03:56:00,55.7,51.6,30.12,SSW,198,2.0,6.0,86,0.00,,,0.00,Wunderground v.1.15,2013-03-15 08:56:00,
2013-03-15 04:00:00,55.7,51.6,30.12,SSW,198,1.0,6.0,86,0.00,,,0.00,Wunderground v.1.15,2013-03-15 09:00:00,
2013-03-15 04:03:00,55.7,51.6,30.12,SSW,198,1.0,6.0,86,0.00,,,0.00,Wunderground v.1.15,2013-03-15 09:03:00,
2013-03-15 04:05:00,55.6,51.5,30.12,SSW,198,1.0,6.0,86,0.00,,,0.00,Wunderground v.1.15,2013-03-15 09:05:00,
2013-03-15 04:06:00,55.6,51.5,30.12,SSW,198,1.0,6.0,86,0.00,,,0.00,Wunderground v.1.15,2013-03-15 09:06:00,
2013-03-15 04:11:00,55.6,51.5,30.12,SSW,198,1.0,3.0,86,0.00,,,0.00,Wunderground v.1.15,2013-03-15 09:11:00,
2013-03-15 04:12:00,55.6,51.5,30.12,SSW,198,1.0,3.0,86,0.00,,,0.00,Wunderground v.1.15,2013-03-15 09:12:00,
2013-03-15 04:13:00,55.6,51.8,30.12,SW,226,1.0,3.0,87,0.00,,,0.00,Wunderground v.1.15,2013-03-15 09:13:00,
2013-03-15 04:14:00,55.6,51.8,30.12,SW,227,2.0,3.0,87,0.00,,,0.00,Wunderground v.1.15,2013-03-15 09:14:00,
2013-03-15 04:17:00,55.6,51.8,30.11,SSW,202,2.0,6.0,87,0.00,,,0.00,Wunderground v.1.15,2013-03-15 09:17:00,
2013-03-15 04:18:00,55.6,51.8,30.11,SSW,202,2.0,6.0,87,0.00,,,0.00,Wunderground v.1.15,2013-03-15 09:18:00,
2013-03-15 04:23:00,55.6,51.8,30.11,SSW,202,2.0,5.0,87,0.00,,,0.00,Wunderground v.1.15,2013-03-15 09:23:00,
2013-03-15 04:26:00,55.4,51.6,30.11,SSW,202,2.0,5.0,87,0.00,,,0.00,Wunderground v.1.15,2013-03-15 09:26:00,
2013-03-15 04:27:00,55.4,51.6,30.11,SSW,202,1.0,5.0,87,0.00,,,0.00,Wunderground v.1.15,2013-03-15 09:27:00,
2013-03-15 04:28:00,55.3,51.5,30.11,SSW,202,1.0,5.0,87,0.00,,,0.00,Wunderground v.1.15,2013-03-15 09:28:00,
2013-03-15 04:31:00,55.3,51.5,30.12,SSW,202,0.0,7.0,87,0.00,,,0.00,Wunderground v.1.15,2013-03-15 09:31:00,
2013-03-15 04:32:00,55.3,51.5,30.12,SSW,202,0.0,7.0,87,0.00,,,0.00,Wunderground v.1.15,2013-03-15 09:32:00,
2013-03-15 04:33:00,55.3,51.5,30.12,SSW,202,0.0,7.0,87,0.00,,,0.00,Wunderground v.1.15,2013-03-15 09:33:00,
2013-03-15 04:37:00,55.1,51.3,30.12,SSW,202,0.0,7.0,87,0.00,,,0.00,Wunderground v.1.15,2013-03-15 09:37:00,
2013-03-15 04:38:00,55.1,51.3,30.12,SSW,202,0.0,7.0,87,0.00,,,0.00,Wunderground v.1.15,2013-03-15 09:38:00,
2013-03-15 04:40:00,55.1,51.3,30.12,SSW,202,0.0,3.0,87,0.00,,,0.00,Wunderground v.1.15,2013-03-15 09:40:00,
2013-03-15 04:44:00,55.1,51.6,30.12,SSW,202,0.0,3.0,88,0.00,,,0.00,Wunderground v.1.15,2013-03-15 09:44:00,
2013-03-15 04:45:00,55.0,51.5,30.12,SSW,202,0.0,3.0,88,0.00,,,0.00,Wunderground v.1.15,2013-03-15 09:45:00,
2013-03-15 04:51:00,54.8,51.3,30.11,SSW,202,0.0,0.0,88,0.00,,,0.00,Wunderground v.1.15,2013-03-15 09:51:00,
2013-03-15 04:52:00,54.8,51.3,30.11,SSW,202,0.0,0.0,88,0.00,,,0.00,Wunderground v.1.15,2013-03-15 09:52:00,
2013-03-15 04:53:00,54.8,51.3,30.11,SSW,202,0.0,0.0,88,0.00,,,0.00,Wunderground v.1.15,2013-03-15 09:53:00,
2013-03-15 04:55:00,54.8,51.3,30.11,SSW,202,0.0,0.0,88,0.00,,,0.00,Wunderground v.1.15,2013-03-15 09:55:00,
2013-03-15 05:00:00,54.7,51.2,30.11,SSW,202,0.0,0.0,88,0.00,,,0.00,Wunderground v.1.15,2013-03-15 10:00:00,
2013-03-15 05:03:00,54.5,51.0,30.10,SSW,202,0.0,0.0,88,0.00,,,0.00,Wunderground v.1.15,2013-03-15 10:03:00,
2013-03-15 05:05:00,54.5,51.0,30.10,SSW,202,0.0,0.0,88,0.00,,,0.00,Wunderground v.1.15,2013-03-15 10:05:00,
2013-03-15 05:06:00,54.5,51.0,30.10,SSW,202,0.0,0.0,88,0.00,,,0.00,Wunderground v.1.15,2013-03-15 10:06:00,
2013-03-15 05:08:00,54.4,50.9,30.10,SSW,202,0.0,0.0,88,0.00,,,0.00,Wunderground v.1.15,2013-03-15 10:08:00,
2013-03-15 05:10:00,54.4,50.9,30.10,SSW,202,0.0,0.0,88,0.00,,,0.00,Wunderground v.1.15,2013-03-15 10:10:00,
2013-03-15 05:11:00,54.4,50.9,30.10,SSW,202,0.0,0.0,88,0.00,,,0.00,Wunderground v.1.15,2013-03-15 10:11:00,
2013-03-15 05:14:00,54.2,50.7,30.10,SSW,202,0.0,0.0,88,0.00,,,0.00,Wunderground v.1.15,2013-03-15 10:14:00,
2013-03-15 05:15:00,54.2,50.7,30.10,SSW,202,0.0,0.0,88,0.00,,,0.00,Wunderground v.1.15,2013-03-15 10:15:00,
2013-03-15 05:17:00,54.1,50.6,30.10,SSW,202,0.0,0.0,88,0.00,,,0.00,Wunderground v.1.15,2013-03-15 10:17:00,
2013-03-15 05:20:00,54.1,50.6,30.10,SSW,202,0.0,0.0,88,0.00,,,0.00,Wunderground v.1.15,2013-03-15 10:20:00,
2013-03-15 05:22:00,53.9,50.4,30.10,SSW,202,0.0,0.0,88,0.00,,,0.00,Wunderground v.1.15,2013-03-15 10:22:00,
2013-03-15 05:23:00,53.8,50.3,30.10,SSW,202,0.0,0.0,88,0.00,,,0.00,Wunderground v.1.15,2013-03-15 10:23:00,
2013-03-15 05:25:00,53.8,50.3,30.10,SSW,202,0.0,0.0,88,0.00,,,0.00,Wunderground v.1.15,2013-03-15 10:25:00,
2013-03-15 05:27:00,53.6,50.4,30.10,SSW,202,0.0,0.0,89,0.00,,,0.00,Wunderground v.1.15,2013-03-15 10:27:00,
2013-03-15 05:30:00,53.6,50.4,30.10,SSW,202,0.0,0.0,89,0.00,,,0.00,Wunderground v.1.15,2013-03-15 10:30:00,
2013-03-15 05:31:00,53.5,50.3,30.10,SSW,202,0.0,0.0,89,0.00,,,0.00,Wunderground v.1.15,2013-03-15 10:31:00,
2013-03-15 05:33:00,53.5,50.3,30.10,SSW,202,0.0,0.0,89,0.00,,,0.00,Wunderground v.1.15,2013-03-15 10:33:00,
2013-03-15 05:36:00,53.5,50.3,30.10,SSW,202,0.0,0.0,89,0.00,,,0.00,Wunderground v.1.15,2013-03-15 10:36:00,
2013-03-15 05:38:00,53.3,50.1,30.10,SSW,202,0.0,0.0,89,0.00,,,0.00,Wunderground v.1.15,2013-03-15 10:38:00,
2013-03-15 05:40:00,53.3,50.1,30.10,SSW,202,0.0,0.0,89,0.00,,,0.00,Wunderground v.1.15,2013-03-15 10:40:00,
2013-03-15 05:42:00,53.3,50.1,30.10,SSW,202,0.0,0.0,89,0.00,,,0.00,Wunderground v.1.15,2013-03-15 10:42:00,
2013-03-15 05:44:00,53.2,50.0,30.10,SSW,202,0.0,0.0,89,0.00,,,0.00,Wunderground v.1.15,2013-03-15 10:44:00,
2013-03-15 05:47:00,53.2,50.0,30.10,SSW,202,0.0,0.0,89,0.00,,,0.00,Wunderground v.1.15,2013-03-15 10:47:00,
2013-03-15 05:48:00,53.2,50.0,30.10,SSW,202,0.0,0.0,89,0.00,,,0.00,Wunderground v.1.15,2013-03-15 10:48:00,
2013-03-15 05:50:00,53.2,50.0,30.10,SSW,202,0.0,0.0,89,0.00,,,0.00,Wunderground v.1.15,2013-03-15 10:50:00,
2013-03-15 05:53:00,53.1,49.9,30.10,SSW,202,0.0,0.0,89,0.00,,,0.00,Wunderground v.1.15,2013-03-15 10:53:00,
2013-03-15 05:56:00,53.1,49.9,30.10,SSW,202,0.0,0.0,89,0.00,,,0.00,Wunderground v.1.15,2013-03-15 10:56:00,
2013-03-15 05:57:00,53.1,49.9,30.10,SSW,202,0.0,0.0,89,0.00,,,0.00,Wunderground v.1.15,2013-03-15 10:57:00,
2013-03-15 05:58:00,53.1,49.9,30.10,SSW,202,0.0,0.0,89,0.00,,,0.00,Wunderground v.1.15,2013-03-15 10:58:00,
2013-03-15 06:02:00,52.9,50.0,30.10,SSW,202,0.0,0.0,90,0.00,,,0.00,Wunderground v.1.15,2013-03-15 11:02:00,
2013-03-15 06:03:00,52.8,49.9,30.10,SSW,202,0.0,0.0,90,0.00,,,0.00,Wunderground v.1.15,2013-03-15 11:03:00,
2013-03-15 06:04:00,52.8,49.9,30.10,SSW,202,0.0,0.0,90,0.00,,,0.00,Wunderground v.1.15,2013-03-15 11:04:00,
2013-03-15 06:10:00,52.8,49.9,30.10,SSW,202,0.0,0.0,90,0.00,,,0.00,Wunderground v.1.15,2013-03-15 11:10:00,
2013-03-15 06:11:00,52.8,49.9,30.10,SSW,202,0.0,0.0,90,0.00,,,0.00,Wunderground v.1.15,2013-03-15 11:11:00,
2013-03-15 06:12:00,52.9,50.3,30.10,SSW,202,0.0,0.0,91,0.00,,,0.00,Wunderground v.1.15,2013-03-15 11:12:00,
2013-03-15 06:17:00,53.1,50.5,30.10,SSW,202,0.0,0.0,91,0.00,,,0.00,Wunderground v.1.15,2013-03-15 11:17:00,
2013-03-15 06:18:00,53.1,50.5,30.10,SSW,202,0.0,0.0,91,0.00,,,0.00,Wunderground v.1.15,2013-03-15 11:18:00,
2013-03-15 06:21:00,53.2,50.6,30.10,SSW,202,0.0,0.0,91,0.00,,,0.00,Wunderground v.1.15,2013-03-15 11:21:00,
2013-03-15 06:23:00,53.3,50.7,30.10,SSW,202,0.0,2.0,91,0.00,,,0.00,Wunderground v.1.15,2013-03-15 11:23:00,
2013-03-15 06:26:00,53.5,50.9,30.10,SSW,202,0.0,2.0,91,0.00,,,0.00,Wunderground v.1.15,2013-03-15 11:26:00,
2013-03-15 06:27:00,53.5,50.9,30.10,SSW,202,1.0,2.0,91,0.00,,,0.00,Wunderground v.1.15,2013-03-15 11:27:00,
2013-03-15 06:30:00,53.5,50.9,30.10,SSW,202,1.0,2.0,91,0.00,,,0.00,Wunderground v.1.15,2013-03-15 11:30:00,
2013-03-15 06:35:00,53.6,51.0,30.10,SSW,202,1.0,1.0,91,0.00,,,0.00,Wunderground v.1.15,2013-03-15 11:35:00,
2013-03-15 06:37:00,53.6,51.0,30.10,SSW,202,1.0,1.0,91,0.00,,,0.00,Wunderground v.1.15,2013-03-15 11:37:00,
2013-03-15 06:40:00,53.6,51.3,30.10,SSW,202,1.0,5.0,92,0.00,,,0.00,Wunderground v.1.15,2013-03-15 11:40:00,
2013-03-15 06:43:00,53.8,51.5,30.10,SSW,202,1.0,5.0,92,0.00,,,0.00,Wunderground v.1.15,2013-03-15 11:43:00,
2013-03-15 06:44:00,53.9,51.6,30.10,SSW,202,1.0,5.0,92,0.00,,,0.00,Wunderground v.1.15,2013-03-15 11:44:00,
2013-03-15 06:46:00,53.9,51.6,30.11,SSW,202,1.0,5.0,92,0.00,,,0.00,Wunderground v.1.15,2013-03-15 11:46:00,
2013-03-15 06:47:00,53.9,51.6,30.11,SSW,202,1.0,5.0,92,0.00,,,0.00,Wunderground v.1.15,2013-03-15 11:47:00,
2013-03-15 06:51:00,54.1,51.8,30.11,SSW,202,1.0,3.0,92,0.00,,,0.00,Wunderground v.1.15,2013-03-15 11:51:00,
2013-03-15 06:53:00,54.2,51.9,30.11,SSW,202,1.0,5.0,92,0.00,,,0.00,Wunderground v.1.15,2013-03-15 11:53:00,
2013-03-15 06:54:00,54.2,51.9,30.11,SSW,202,1.0,5.0,92,0.00,,,0.00,Wunderground v.1.15,2013-03-15 11:54:00,
2013-03-15 06:56:00,54.4,52.1,30.11,SSW,203,1.0,5.0,92,0.00,,,0.00,Wunderground v.1.15,2013-03-15 11:56:00,
2013-03-15 07:00:00,54.4,52.1,30.11,SSW,203,2.0,3.0,92,0.00,,,0.00,Wunderground v.1.15,2013-03-15 12:00:00,
2013-03-15 07:01:00,54.5,51.9,30.12,SSW,203,2.0,3.0,91,0.00,,,0.00,Wunderground v.1.15,2013-03-15 12:01:00,
2013-03-15 07:04:00,54.5,51.9,30.12,SSW,202,2.0,3.0,91,0.00,,,0.00,Wunderground v.1.15,2013-03-15 12:04:00,
2013-03-15 07:05:00,54.5,51.9,30.12,SSW,202,2.0,3.0,91,0.00,,,0.00,Wunderground v.1.15,2013-03-15 12:05:00,
2013-03-15 07:07:00,54.5,51.9,30.12,SSW,202,1.0,3.0,91,0.00,,,0.00,Wunderground v.1.15,2013-03-15 12:07:00,
2013-03-15 07:12:00,54.7,52.1,30.12,SSW,203,1.0,4.0,91,0.00,,,0.00,Wunderground v.1.15,2013-03-15 12:12:00,
2013-03-15 07:13:00,54.7,52.1,30.12,SSW,203,1.0,4.0,91,0.00,,,0.00,Wunderground v.1.15,2013-03-15 12:13:00,
2013-03-15 07:14:00,54.8,52.2,30.12,SSW,203,1.0,4.0,91,0.00,,,0.00,Wunderground v.1.15,2013-03-15 12:14:00,
2013-03-15 07:20:00,55.0,52.4,30.12,SSW,210,2.0,6.0,91,0.00,,,0.00,Wunderground v.1.15,2013-03-15 12:20:00,
2013-03-15 07:22:00,55.1,52.5,30.12,SSW,210,2.0,6.0,91,0.00,,,0.00,Wunderground v.1.15,2013-03-15 12:22:00,
2013-03-15 07:23:00,55.1,52.5,30.12,SSW,212,2.0,6.0,91,0.00,,,0.00,Wunderground v.1.15,2013-03-15 12:23:00,
2013-03-15 07:24:00,55.1,52.5,30.12,SSW,213,2.0,6.0,91,0.00,,,0.00,Wunderground v.1.15,2013-03-15 12:24:00,
2013-03-15 07:27:00,55.3,52.7,30.12,SSW,213,2.0,6.0,91,0.00,,,0.00,Wunderground v.1.15,2013-03-15 12:27:00,
2013-03-15 07:30:00,55.4,52.8,30.12,SW,216,3.0,5.0,91,0.00,,,0.00,Wunderground v.1.15,2013-03-15 12:30:00,
2013-03-15 07:31:00,55.4,52.8,30.12,SW,217,3.0,6.0,91,0.00,,,0.00,Wunderground v.1.15,2013-03-15 12:31:00,
2013-03-15 07:34:00,55.6,53.0,30.12,SW,217,3.0,6.0,91,0.00,,,0.00,Wunderground v.1.15,2013-03-15 12:34:00,
2013-03-15 07:35:00,55.6,53.0,30.12,SW,219,3.0,6.0,91,0.00,,,0.00,Wunderground v.1.15,2013-03-15 12:35:00,
2013-03-15 07:39:00,55.7,53.1,30.12,SW,229,4.0,7.0,91,0.00,,,0.00,Wunderground v.1.15,2013-03-15 12:39:00,
2013-03-15 07:41:00,55.7,53.1,30.12,SW,229,4.0,7.0,91,0.00,,,0.00,Wunderground v.1.15,2013-03-15 12:41:00,
2013-03-15 07:42:00,55.7,53.1,30.12,SW,229,4.0,7.0,91,0.00,,,0.00,Wunderground v.1.15,2013-03-15 12:42:00,
2013-03-15 07:44:00,55.7,53.1,30.12,SW,229,4.0,7.0,91,0.00,,,0.00,Wunderground v.1.15,2013-03-15 12:44:00,
2013-03-15 07:47:00,55.9,53.0,30.12,SW,229,3.0,7.0,90,0.00,,,0.00,Wunderground v.1.15,2013-03-15 12:47:00,
2013-03-15 07:48:00,55.9,53.0,30.12,SW,229,3.0,7.0,90,0.00,,,0.00,Wunderground v.1.15,2013-03-15 12:48:00,
2013-03-15 07:52:00,55.9,53.0,30.12,SW,220,2.0,7.0,90,0.00,,,0.00,Wunderground v.1.15,2013-03-15 12:52:00,
2013-03-15 07:53:00,55.9,53.0,30.12,SW,222,3.0,7.0,90,0.00,,,0.00,Wunderground v.1.15,2013-03-15 12:53:00,
2013-03-15 07:56:00,55.9,53.0,30.12,SW,222,2.0,7.0,90,0.00,,,0.00,Wunderground v.1.15,2013-03-15 12:56:00,
2013-03-15 07:57:00,55.9,53.0,30.12,SW,222,2.0,7.0,90,0.00,,,0.00,Wunderground v.1.15,2013-03-15 12:57:00,
2013-03-15 07:58:00,55.9,53.0,30.12,SW,222,2.0,7.0,90,0.00,,,0.00,Wunderground v.1.15,2013-03-15 12:58:00,
2013-03-15 07:59:00,56.0,53.1,30.12,SW,222,2.0,6.0,90,0.00,,,0.00,Wunderground v.1.15,2013-03-15 12:59:00,
2013-03-15 08:02:00,56.0,53.1,30.12,SW,229,2.0,6.0,90,0.00,,,0.00,Wunderground v.1.15,2013-03-15 13:02:00,
2013-03-15 08:05:00,56.0,53.1,30.12,SW,229,3.0,6.0,90,0.00,,,0.00,Wunderground v.1.15,2013-03-15 13:05:00,
2013-03-15 08:07:00,56.0,53.1,30.12,SSW,213,3.0,6.0,90,0.00,,,0.00,Wunderground v.1.15,2013-03-15 13:07:00,
2013-03-15 08:08:00,56.2,53.3,30.12,SW,230,3.0,6.0,90,0.00,,,0.00,Wunderground v.1.15,2013-03-15 13:08:00,
2013-03-15 08:11:00,56.2,53.3,30.12,SW,229,4.0,7.0,90,0.00,,,0.00,Wunderground v.1.15,2013-03-15 13:11:00,
2013-03-15 08:13:00,56.3,53.4,30.12,SW,227,3.0,7.0,90,0.00,,,0.00,Wunderground v.1.15,2013-03-15 13:13:00,
2013-03-15 08:14:00,56.3,53.4,30.12,SW,227,3.0,7.0,90,0.00,,,0.00,Wunderground v.1.15,2013-03-15 13:14:00,
2013-03-15 08:16:00,56.3,53.4,30.12,SSW,205,3.0,7.0,90,0.00,,,0.00,Wunderground v.1.15,2013-03-15 13:16:00,
2013-03-15 08:17:00,56.3,53.4,30.12,SSW,206,4.0,7.0,90,0.00,,,0.00,Wunderground v.1.15,2013-03-15 13:17:00,
2013-03-15 08:19:00,56.3,53.4,30.12,SW,234,3.0,7.0,90,0.00,,,0.00,Wunderground v.1.15,2013-03-15 13:19:00,
2013-03-15 08:22:00,56.5,53.6,30.12,SW,220,4.0,5.0,90,0.00,,,0.00,Wunderground v.1.15,2013-03-15 13:22:00,
2013-03-15 08:23:00,56.5,53.6,30.12,SW,224,4.0,7.0,90,0.00,,,0.00,Wunderground v.1.15,2013-03-15 13:23:00,
2013-03-15 08:24:00,56.5,53.6,30.12,SW,224,4.0,8.0,90,0.00,,,0.00,Wunderground v.1.15,2013-03-15 13:24:00,
2013-03-15 08:25:00,56.5,53.6,30.12,SSW,206,4.0,8.0,90,0.00,,,0.00,Wunderground v.1.15,2013-03-15 13:25:00,
2013-03-15 08:27:00,56.6,53.7,30.12,SW,234,4.0,8.0,90,0.00,,,0.00,Wunderground v.1.15,2013-03-15 13:27:00,
2013-03-15 08:32:00,56.9,53.7,30.12,SW,229,4.0,8.0,89,0.00,,,0.00,Wunderground v.1.15,2013-03-15 13:32:00,
2013-03-15 08:33:00,56.9,53.7,30.12,SSW,208,4.0,8.0,89,0.00,,,0.00,Wunderground v.1.15,2013-03-15 13:33:00,
2013-03-15 08:36:00,57.0,53.8,30.12,SW,234,4.0,8.0,89,0.00,,,0.00,Wunderground v.1.15,2013-03-15 13:36:00,
2013-03-15 08:37:00,57.0,53.8,30.12,SW,234,4.0,8.0,89,0.00,,,0.00,Wunderground v.1.15,2013-03-15 13:37:00,
2013-03-15 08:38:00,57.2,54.0,30.12,SW,234,4.0,8.0,89,0.00,,,0.00,Wunderground v.1.15,2013-03-15 13:38:00,
2013-03-15 08:39:00,57.2,54.0,30.12,SW,217,4.0,8.0,89,0.00,,,0.00,Wunderground v.1.15,2013-03-15 13:39:00,
2013-03-15 08:42:00,57.3,54.1,30.12,SSW,205,4.0,8.0,89,0.00,,,0.00,Wunderground v.1.15,2013-03-15 13:42:00,
2013-03-15 08:44:00,57.5,54.3,30.12,SW,220,3.0,8.0,89,0.00,,,0.00,Wunderground v.1.15,2013-03-15 13:44:00,
2013-03-15 08:45:00,57.5,54.0,30.12,SSW,206,3.0,8.0,88,0.00,,,0.00,Wunderground v.1.15,2013-03-15 13:45:00,
2013-03-15 08:48:00,57.5,54.0,30.12,WSW,240,4.0,8.0,88,0.00,,,0.00,Wunderground v.1.15,2013-03-15 13:48:00,
2013-03-15 08:50:00,57.6,54.1,30.12,WSW,239,3.0,10.0,88,0.00,,,0.00,Wunderground v.1.15,2013-03-15 13:50:00,
2013-03-15 08:51:00,57.8,54.3,30.12,SW,215,3.0,10.0,88,0.00,,,0.00,Wunderground v.1.15,2013-03-15 13:51:00,
2013-03-15 08:55:00,57.8,54.3,30.12,SW,220,3.0,10.0,88,0.00,,,0.00,Wunderground v.1.15,2013-03-15 13:55:00,
2013-03-15 08:58:00,58.0,54.2,30.12,South,186,3.0,10.0,87,0.00,,,0.00,Wunderground v.1.15,2013-03-15 13:58:00,
2013-03-15 09:01:00,58.0,54.2,30.13,SSW,196,4.0,8.0,87,0.00,,,0.00,Wunderground v.1.15,2013-03-15 14:01:00,
2013-03-15 09:03:00,58.0,54.2,30.13,SSW,195,4.0,8.0,87,0.00,,,0.00,Wunderground v.1.15,2013-03-15 14:03:00,
2013-03-15 09:04:00,58.1,54.2,30.13,SSW,198,4.0,8.0,87,0.00,,,0.00,Wunderground v.1.15,2013-03-15 14:04:00,
2013-03-15 09:05:00,58.1,54.2,30.13,SSW,208,4.0,8.0,87,0.00,,,0.00,Wunderground v.1.15,2013-03-15 14:05:00,
2013-03-15 09:08:00,58.1,53.9,30.13,SW,215,4.0,8.0,86,0.00,,,0.00,Wunderground v.1.15,2013-03-15 14:08:00,
2013-03-15 09:09:00,58.1,53.9,30.13,SSW,199,4.0,8.0,86,0.00,,,0.00,Wunderground v.1.15,2013-03-15 14:09:00,
2013-03-15 09:11:00,58.3,54.1,30.13,SW,226,4.0,11.0,86,0.00,,,0.00,Wunderground v.1.15,2013-03-15 14:11:00,
2013-03-15 09:13:00,58.3,54.1,30.13,SW,230,5.0,11.0,86,0.00,,,0.00,Wunderground v.1.15,2013-03-15 14:13:00,
2013-03-15 09:16:00,58.4,54.2,30.13,SSW,212,5.0,11.0,86,0.00,,,0.00,Wunderground v.1.15,2013-03-15 14:16:00,
2013-03-15 09:17:00,58.4,54.2,30.13,SSW,202,5.0,11.0,86,0.00,,,0.00,Wunderground v.1.15,2013-03-15 14:17:00,
2013-03-15 09:18:00,58.4,54.2,30.13,SW,230,6.0,11.0,86,0.00,,,0.00,Wunderground v.1.15,2013-03-15 14:18:00,
2013-03-15 09:20:00,58.7,54.5,30.13,SSW,193,5.0,10.0,86,0.00,,,0.00,Wunderground v.1.15,2013-03-15 14:20:00,
2013-03-15 09:23:00,58.7,54.2,30.13,SW,224,6.0,10.0,85,0.00,,,0.00,Wunderground v.1.15,2013-03-15 14:23:00,
2013-03-15 09:26:00,58.9,54.4,30.13,SSW,210,6.0,11.0,85,0.00,,,0.00,Wunderground v.1.15,2013-03-15 14:26:00,
2013-03-15 09:27:00,58.9,54.4,30.13,SSE,165,6.0,11.0,85,0.00,,,0.00,Wunderground v.1.15,2013-03-15 14:27:00,
2013-03-15 09:29:00,59.0,54.5,30.13,SW,232,5.0,11.0,85,0.00,,,0.00,Wunderground v.1.15,2013-03-15 14:29:00,
2013-03-15 09:30:00,59.0,54.5,30.13,SW,224,6.0,6.0,85,0.00,,,0.00,Wunderground v.1.15,2013-03-15 14:30:00,
2013-03-15 09:33:00,59.3,54.5,30.13,SSW,200,5.0,11.0,84,0.00,,,0.00,Wunderground v.1.15,2013-03-15 14:33:00,
2013-03-15 09:35:00,59.3,54.5,30.13,South,184,5.0,11.0,84,0.00,,,0.00,Wunderground v.1.15,2013-03-15 14:35:00,
2013-03-15 09:37:00,59.5,54.7,30.13,SW,224,5.0,11.0,84,0.00,,,0.00,Wunderground v.1.15,2013-03-15 14:37:00,
2013-03-15 09:40:00,59.8,54.6,30.13,SSW,210,6.0,13.0,83,0.00,,,0.00,Wunderground v.1.15,2013-03-15 14:40:00,
2013-03-15 09:42:00,59.8,54.6,30.13,SW,220,7.0,13.0,83,0.00,,,0.00,Wunderground v.1.15,2013-03-15 14:42:00,
2013-03-15 09:43:00,59.8,54.6,30.13,South,178,7.0,13.0,83,0.00,,,0.00,Wunderground v.1.15,2013-03-15 14:43:00,
2013-03-15 09:45:00,60.1,54.9,30.13,SSW,210,7.0,13.0,83,0.00,,,0.00,Wunderground v.1.15,2013-03-15 14:45:00,
2013-03-15 09:49:00,60.5,55.0,30.12,West,270,6.0,13.0,82,0.00,,,0.00,Wunderground v.1.15,2013-03-15 14:49:00,
2013-03-15 09:50:00,60.7,54.8,30.12,SSW,203,6.0,6.0,81,0.00,,,0.00,Wunderground v.1.15,2013-03-15 14:50:00,
2013-03-15 09:51:00,60.9,55.0,30.12,SW,216,5.0,17.0,81,0.00,,,0.00,Wunderground v.1.15,2013-03-15 14:51:00,
2013-03-15 09:52:00,61.0,55.1,30.12,WSW,248,5.0,17.0,81,0.00,,,0.00,Wunderground v.1.15,2013-03-15 14:52:00,
2013-03-15 09:55:00,61.5,55.3,30.12,South,186,5.0,17.0,80,0.00,,,0.00,Wunderground v.1.15,2013-03-15 14:55:00,
2013-03-15 09:57:00,61.6,55.0,30.12,SW,220,5.0,17.0,79,0.00,,,0.00,Wunderground v.1.15,2013-03-15 14:57:00,
2013-03-15 10:01:00,62.0,55.4,30.12,WSW,256,6.0,11.0,79,0.00,,,0.00,Wunderground v.1.15,2013-03-15 15:01:00,
2013-03-15 10:03:00,62.1,55.2,30.12,SSW,203,6.0,11.0,78,0.00,,,0.00,Wunderground v.1.15,2013-03-15 15:03:00,
2013-03-15 10:05:00,62.3,55.4,30.12,WSW,241,7.0,11.0,78,0.00,,,0.00,Wunderground v.1.15,2013-03-15 15:05:00,
2013-03-15 10:07:00,62.4,55.4,30.12,SW,229,8.0,11.0,78,0.00,,,0.00,Wunderground v.1.15,2013-03-15 15:07:00,
2013-03-15 10:08:00,62.3,55.0,30.12,SE,138,7.0,15.0,77,0.00,,,0.00,Wunderground v.1.15,2013-03-15 15:08:00,
2013-03-15 10:11:00,62.3,55.0,30.12,SSW,203,8.0,8.0,77,0.00,,,0.00,Wunderground v.1.15,2013-03-15 15:11:00,
2013-03-15 10:12:00,62.3,55.0,30.12,SSW,193,8.0,18.0,77,0.00,,,0.00,Wunderground v.1.15,2013-03-15 15:12:00,
2013-03-15 10:14:00,62.4,55.1,30.12,SSW,199,7.0,18.0,77,0.00,,,0.00,Wunderground v.1.15,2013-03-15 15:14:00,
2013-03-15 10:16:00,62.6,54.9,30.12,SSW,195,7.0,18.0,76,0.00,,,0.00,Wunderground v.1.15,2013-03-15 15:16:00,
2013-03-15 10:21:00,62.9,54.9,30.12,South,191,6.0,6.0,75,0.00,,,0.00,Wunderground v.1.15,2013-03-15 15:21:00,
2013-03-15 10:23:00,63.1,55.0,30.12,South,189,7.0,9.0,75,0.00,,,0.00,Wunderground v.1.15,2013-03-15 15:23:00,
2013-03-15 10:24:00,63.1,55.0,30.12,South,189,7.0,17.0,75,0.00,,,0.00,Wunderground v.1.15,2013-03-15 15:24:00,
2013-03-15 10:26:00,63.2,55.1,30.12,SSW,208,7.0,17.0,75,0.00,,,0.00,Wunderground v.1.15,2013-03-15 15:26:00,
2013-03-15 10:28:00,63.7,55.3,30.12,SSW,198,6.0,17.0,74,0.00,,,0.00,Wunderground v.1.15,2013-03-15 15:28:00,
2013-03-15 10:31:00,63.9,55.1,30.12,South,188,6.0,14.0,73,0.00,,,0.00,Wunderground v.1.15,2013-03-15 15:31:00,
2013-03-15 10:32:00,63.7,54.5,30.12,SSW,209,6.0,14.0,72,0.00,,,0.00,Wunderground v.1.15,2013-03-15 15:32:00,
2013-03-15 10:33:00,63.7,54.9,30.12,SW,222,6.0,14.0,73,0.00,,,0.00,Wunderground v.1.15,2013-03-15 15:33:00,
2013-03-15 10:36:00,64.2,55.4,30.12,South,169,6.0,14.0,73,0.00,,,0.00,Wunderground v.1.15,2013-03-15 15:36:00,
2013-03-15 10:37:00,64.2,55.0,30.12,SW,217,6.0,14.0,72,0.00,,,0.00,Wunderground v.1.15,2013-03-15 15:37:00,
2013-03-15 10:42:00,64.5,54.9,30.12,WSW,239,7.0,16.0,71,0.00,,,0.00,Wunderground v.1.15,2013-03-15 15:42:00,
2013-03-15 10:44:00,64.7,55.1,30.12,SSW,196,6.0,16.0,71,0.00,,,0.00,Wunderground v.1.15,2013-03-15 15:44:00,
2013-03-15 10:45:00,64.8,55.2,30.12,SSW,196,7.0,16.0,71,0.00,,,0.00,Wunderground v.1.15,2013-03-15 15:45:00,
2013-03-15 10:48:00,65.0,55.4,30.12,SSE,162,7.0,16.0,71,0.00,,,0.00,Wunderground v.1.15,2013-03-15 15:48:00,
2013-03-15 10:51:00,65.2,55.2,30.12,South,184,7.0,13.0,70,0.00,,,0.00,Wunderground v.1.15,2013-03-15 15:51:00,
2013-03-15 10:53:00,65.5,55.1,30.12,South,189,7.0,13.0,69,0.00,,,0.00,Wunderground v.1.15,2013-03-15 15:53:00,
2013-03-15 10:55:00,65.6,55.2,30.12,SW,224,6.0,13.0,69,0.00,,,0.00,Wunderground v.1.15,2013-03-15 15:55:00,
2013-03-15 10:58:00,65.6,55.2,30.12,SW,227,7.0,13.0,69,0.00,,,0.00,Wunderground v.1.15,2013-03-15 15:58:00,
2013-03-15 11:00:00,65.8,54.9,30.12,SSW,198,7.0,16.0,68,0.00,,,0.00,Wunderground v.1.15,2013-03-15 16:00:00,
2013-03-15 11:01:00,66.0,55.1,30.11,SW,217,6.0,16.0,68,0.00,,,0.00,Wunderground v.1.15,2013-03-15 16:01:00,
2013-03-15 11:06:00,66.3,55.0,30.11,West,261,7.0,16.0,67,0.00,,,0.00,Wunderground v.1.15,2013-03-15 16:06:00,
2013-03-15 11:07:00,66.1,54.8,30.11,SSW,195,7.0,16.0,67,0.00,,,0.00,Wunderground v.1.15,2013-03-15 16:07:00,
2013-03-15 11:08:00,66.1,54.8,30.11,South,189,7.0,16.0,67,0.00,,,0.00,Wunderground v.1.15,2013-03-15 16:08:00,
2013-03-15 11:11:00,66.4,54.7,30.11,SW,222,7.0,16.0,66,0.00,,,0.00,Wunderground v.1.15,2013-03-15 16:11:00,
2013-03-15 11:14:00,66.8,55.1,30.11,WSW,240,7.0,16.0,66,0.00,,,0.00,Wunderground v.1.15,2013-03-15 16:14:00,
2013-03-15 11:15:00,66.8,55.1,30.11,SW,232,7.0,16.0,66,0.00,,,0.00,Wunderground v.1.15,2013-03-15 16:15:00,
2013-03-15 11:17:00,66.9,55.2,30.11,SSW,213,6.0,16.0,66,0.00,,,0.00,Wunderground v.1.15,2013-03-15 16:17:00,
2013-03-15 11:19:00,66.9,55.2,30.11,WSW,248,7.0,16.0,66,0.00,,,0.00,Wunderground v.1.15,2013-03-15 16:19:00,
2013-03-15 11:22:00,66.9,55.2,30.11,South,172,7.0,16.0,66,0.00,,,0.00,Wunderground v.1.15,2013-03-15 16:22:00,
2013-03-15 11:23:00,67.1,55.4,30.11,SSW,203,7.0,16.0,66,0.00,,,0.00,Wunderground v.1.15,2013-03-15 16:23:00,
2013-03-15 11:26:00,67.3,55.5,30.11,South,188,7.0,16.0,66,0.00,,,0.00,Wunderground v.1.15,2013-03-15 16:26:00,
2013-03-15 11:28:00,67.3,55.1,30.11,South,174,7.0,16.0,65,0.00,,,0.00,Wunderground v.1.15,2013-03-15 16:28:00,
2013-03-15 11:31:00,67.3,55.1,30.11,SSW,213,6.0,14.0,65,0.00,,,0.00,Wunderground v.1.15,2013-03-15 16:31:00,
2013-03-15 11:34:00,67.4,55.2,30.11,SW,234,7.0,14.0,65,0.00,,,0.00,Wunderground v.1.15,2013-03-15 16:34:00,
2013-03-15 11:37:00,67.6,55.0,30.11,South,191,7.0,14.0,64,0.00,,,0.00,Wunderground v.1.15,2013-03-15 16:37:00,
2013-03-15 11:39:00,67.8,54.7,30.11,WSW,246,7.0,14.0,63,0.00,,,0.00,Wunderground v.1.15,2013-03-15 16:39:00,
2013-03-15 11:40:00,67.6,55.0,30.11,SW,229,8.0,8.0,64,0.00,,,0.00,Wunderground v.1.15,2013-03-15 16:40:00,
2013-03-15 11:46:00,68.1,54.6,30.10,WSW,258,8.0,14.0,62,0.00,,,0.00,Wunderground v.1.15,2013-03-15 16:46:00,
2013-03-15 11:47:00,68.1,54.6,30.10,SSW,192,8.0,14.0,62,0.00,,,0.00,Wunderground v.1.15,2013-03-15 16:47:00,
2013-03-15 11:51:00,68.4,54.9,30.10,SW,217,8.0,11.0,62,0.00,,,0.00,Wunderground v.1.15,2013-03-15 16:51:00,
2013-03-15 11:52:00,68.4,54.9,30.10,South,169,8.0,15.0,62,0.00,,,0.00,Wunderground v.1.15,2013-03-15 16:52:00,
2013-03-15 11:56:00,68.3,54.8,30.10,West,260,9.0,15.0,62,0.00,,,0.00,Wunderground v.1.15,2013-03-15 16:56:00,
2013-03-15 11:57:00,68.4,55.3,30.10,SW,217,8.0,15.0,63,0.00,,,0.00,Wunderground v.1.15,2013-03-15 16:57:00,
2013-03-15 11:58:00,68.6,55.1,30.10,SW,222,8.0,15.0,62,0.00,,,0.00,Wunderground v.1.15,2013-03-15 16:58:00,
2013-03-15 12:04:00,69.1,55.1,30.10,South,174,7.0,18.0,61,0.00,,,0.00,Wunderground v.1.15,2013-03-15 17:04:00,
2013-03-15 12:05:00,69.1,55.1,30.10,SSW,202,7.0,18.0,61,0.00,,,0.00,Wunderground v.1.15,2013-03-15 17:05:00,
2013-03-15 12:06:00,69.3,55.3,30.10,SW,223,7.0,18.0,61,0.00,,,0.00,Wunderground v.1.15,2013-03-15 17:06:00,
2013-03-15 12:07:00,69.4,54.9,30.10,WSW,240,6.0,18.0,60,0.00,,,0.00,Wunderground v.1.15,2013-03-15 17:07:00,
2013-03-15 12:09:00,69.6,55.1,30.10,South,188,6.0,18.0,60,0.00,,,0.00,Wunderground v.1.15,2013-03-15 17:09:00,
2013-03-15 12:11:00,69.8,54.8,30.10,South,182,6.0,17.0,59,0.00,,,0.00,Wunderground v.1.15,2013-03-15 17:11:00,
2013-03-15 12:12:00,69.8,55.3,30.10,South,174,6.0,17.0,60,0.00,,,0.00,Wunderground v.1.15,2013-03-15 17:12:00,
2013-03-15 12:17:00,70.1,54.6,30.10,SSE,160,6.0,17.0,58,0.00,,,0.00,Wunderground v.1.15,2013-03-15 17:17:00,
2013-03-15 12:20:00,70.3,54.8,30.10,SSW,193,6.0,17.0,58,0.00,,,0.00,Wunderground v.1.15,2013-03-15 17:20:00,
2013-03-15 12:22:00,70.6,55.1,30.10,SE,134,6.0,16.0,58,0.00,,,0.00,Wunderground v.1.15,2013-03-15 17:22:00,
2013-03-15 12:24:00,70.4,54.9,30.10,SE,145,6.0,16.0,58,0.00,,,0.00,Wunderground v.1.15,2013-03-15 17:24:00,
2013-03-15 12:28:00,70.6,55.1,30.10,SW,220,6.0,16.0,58,0.00,,,0.00,Wunderground v.1.15,2013-03-15 17:28:00,
2013-03-15 12:30:00,70.8,55.3,30.10,South,188,5.0,16.0,58,0.00,,,0.00,Wunderground v.1.15,2013-03-15 17:30:00,
2013-03-15 12:33:00,71.5,55.5,30.09,South,189,4.0,13.0,57,0.00,,,0.00,Wunderground v.1.15,2013-03-15 17:33:00,
2013-03-15 12:35:00,71.6,54.6,30.09,SE,136,4.0,13.0,55,0.00,,,0.00,Wunderground v.1.15,2013-03-15 17:35:00,
2013-03-15 12:36:00,71.6,54.6,30.09,South,191,4.0,13.0,55,0.00,,,0.00,Wunderground v.1.15,2013-03-15 17:36:00,
2013-03-15 12:40:00,71.3,55.3,30.09,WSW,248,5.0,13.0,57,0.00,,,0.00,Wunderground v.1.15,2013-03-15 17:40:00,
2013-03-15 12:42:00,71.3,55.8,30.09,SSW,208,6.0,11.0,58,0.00,,,0.00,Wunderground v.1.15,2013-03-15 17:42:00,
2013-03-15 12:44:00,71.5,55.9,30.09,SSW,198,6.0,11.0,58,0.00,,,0.00,Wunderground v.1.15,2013-03-15 17:44:00,
2013-03-15 12:45:00,71.6,55.1,30.09,SE,137,6.0,11.0,56,0.00,,,0.00,Wunderground v.1.15,2013-03-15 17:45:00,
2013-03-15 12:50:00,72.8,54.7,30.09,South,191,5.0,12.0,53,0.00,,,0.00,Wunderground v.1.15,2013-03-15 17:50:00,
2013-03-15 12:53:00,72.7,55.1,30.09,SSW,192,5.0,12.0,54,0.00,,,0.00,Wunderground v.1.15,2013-03-15 17:53:00,
2013-03-15 12:56:00,72.1,54.5,30.09,South,169,6.0,12.0,54,0.00,,,0.00,Wunderground v.1.15,2013-03-15 17:56:00,
2013-03-15 12:57:00,72.1,54.5,30.09,SSW,209,7.0,12.0,54,0.00,,,0.00,Wunderground v.1.15,2013-03-15 17:57:00,
2013-03-15 12:58:00,72.1,54.5,30.09,SSE,162,7.0,12.0,54,0.00,,,0.00,Wunderground v.1.15,2013-03-15 17:58:00,
2013-03-15 13:03:00,72.5,53.9,30.08,SW,222,7.0,14.0,52,0.00,,,0.00,Wunderground v.1.15,2013-03-15 18:03:00,
2013-03-15 13:05:00,72.5,53.9,30.08,SW,229,7.0,14.0,52,0.00,,,0.00,Wunderground v.1.15,2013-03-15 18:05:00,
2013-03-15 13:07:00,72.5,53.9,30.08,SSE,165,7.0,14.0,52,0.00,,,0.00,Wunderground v.1.15,2013-03-15 18:07:00,
2013-03-15 13:08:00,72.5,54.4,30.08,SW,219,8.0,14.0,53,0.00,,,0.00,Wunderground v.1.15,2013-03-15 18:08:00,
2013-03-15 13:11:00,72.3,54.2,30.08,SW,219,9.0,14.0,53,0.00,,,0.00,Wunderground v.1.15,2013-03-15 18:11:00,
2013-03-15 13:13:00,72.5,54.9,30.08,SSE,148,9.0,14.0,54,0.00,,,0.00,Wunderground v.1.15,2013-03-15 18:13:00,
2013-03-15 13:14:00,72.5,54.4,30.08,South,178,8.0,14.0,53,0.00,,,0.00,Wunderground v.1.15,2013-03-15 18:14:00,
2013-03-15 13:16:00,72.7,54.1,30.07,South,174,8.0,14.0,52,0.00,,,0.00,Wunderground v.1.15,2013-03-15 18:16:00,
2013-03-15 13:20:00,73.3,54.1,30.07,WSW,241,6.0,19.0,51,0.00,,,0.00,Wunderground v.1.15,2013-03-15 18:20:00,
2013-03-15 13:21:00,73.3,53.5,30.07,SSW,208,6.0,19.0,50,0.00,,,0.00,Wunderground v.1.15,2013-03-15 18:21:00,
2013-03-15 13:25:00,73.2,54.0,30.07,South,188,7.0,19.0,51,0.00,,,0.00,Wunderground v.1.15,2013-03-15 18:25:00,
2013-03-15 13:27:00,73.2,54.0,30.07,SSE,167,7.0,19.0,51,0.00,,,0.00,Wunderground v.1.15,2013-03-15 18:27:00,
2013-03-15 13:28:00,73.5,53.7,30.07,South,184,7.0,19.0,50,0.00,,,0.00,Wunderground v.1.15,2013-03-15 18:28:00,
2013-03-15 13:32:00,73.9,53.0,30.05,SW,224,7.0,18.0,48,0.00,,,0.00,Wunderground v.1.15,2013-03-15 18:32:00,
2013-03-15 13:33:00,74.0,53.6,30.05,SSW,213,7.0,18.0,49,0.00,,,0.00,Wunderground v.1.15,2013-03-15 18:33:00,
2013-03-15 13:34:00,74.2,53.8,30.05,South,188,6.0,18.0,49,0.00,,,0.00,Wunderground v.1.15,2013-03-15 18:34:00,
2013-03-15 13:38:00,74.4,54.0,30.05,SW,232,6.0,18.0,49,0.00,,,0.00,Wunderground v.1.15,2013-03-15 18:38:00,
2013-03-15 13:40:00,74.2,53.8,30.05,SSW,199,6.0,18.0,49,0.00,,,0.00,Wunderground v.1.15,2013-03-15 18:40:00,
2013-03-15 13:42:00,74.2,54.4,30.05,SW,236,6.0,14.0,50,0.00,,,0.00,Wunderground v.1.15,2013-03-15 18:42:00,
2013-03-15 13:43:00,74.2,54.4,30.05,SSW,198,6.0,14.0,50,0.00,,,0.00,Wunderground v.1.15,2013-03-15 18:43:00,
2013-03-15 13:47:00,74.4,54.0,30.04,WSW,241,7.0,14.0,49,0.00,,,0.00,Wunderground v.1.15,2013-03-15 18:47:00,
2013-03-15 13:48:00,74.4,53.4,30.04,SW,230,6.0,14.0,48,0.00,,,0.00,Wunderground v.1.15,2013-03-15 18:48:00,
2013-03-15 13:50:00,74.6,53.6,30.04,SW,224,7.0,16.0,48,0.00,,,0.00,Wunderground v.1.15,2013-03-15 18:50:00,
2013-03-15 13:52:00,74.6,54.2,30.04,SW,232,6.0,16.0,49,0.00,,,0.00,Wunderground v.1.15,2013-03-15 18:52:00,
2013-03-15 13:55:00,74.6,53.0,30.04,SW,232,7.0,16.0,47,0.00,,,0.00,Wunderground v.1.15,2013-03-15 18:55:00,
2013-03-15 14:00:00,74.9,53.3,30.04,SW,223,8.0,8.0,47,0.00,,,0.00,Wunderground v.1.15,2013-03-15 19:00:00,
2013-03-15 14:01:00,74.9,52.7,30.03,SSW,193,8.0,12.0,46,0.00,,,0.00,Wunderground v.1.15,2013-03-15 19:01:00,
2013-03-15 14:02:00,75.1,52.9,30.03,SSW,196,8.0,13.0,46,0.00,,,0.00,Wunderground v.1.15,2013-03-15 19:02:00,
2013-03-15 14:05:00,75.1,52.3,30.03,SSE,168,9.0,13.0,45,0.00,,,0.00,Wunderground v.1.15,2013-03-15 19:05:00,
2013-03-15 14:10:00,75.3,52.5,30.03,SSW,202,8.0,8.0,45,0.00,,,0.00,Wunderground v.1.15,2013-03-15 19:10:00,
2013-03-15 14:11:00,75.4,52.6,30.03,SSE,167,8.0,19.0,45,0.00,,,0.00,Wunderground v.1.15,2013-03-15 19:11:00,
2013-03-15 14:12:00,75.6,53.4,30.03,WSW,248,7.0,19.0,46,0.00,,,0.00,Wunderground v.1.15,2013-03-15 19:12:00,
2013-03-15 14:13:00,75.8,52.9,30.03,South,188,7.0,19.0,45,0.00,,,0.00,Wunderground v.1.15,2013-03-15 19:13:00,
2013-03-15 14:16:00,75.3,51.9,30.02,South,175,7.0,19.0,44,0.00,,,0.00,Wunderground v.1.15,2013-03-15 19:16:00,
2013-03-15 14:20:00,75.8,52.3,30.02,SSW,199,7.0,20.0,44,0.00,,,0.00,Wunderground v.1.15,2013-03-15 19:20:00,
2013-03-15 14:22:00,75.8,51.7,30.02,SSW,200,8.0,20.0,43,0.00,,,0.00,Wunderground v.1.15,2013-03-15 19:22:00,
2013-03-15 14:25:00,75.8,51.7,30.02,South,191,8.0,20.0,43,0.00,,,0.00,Wunderground v.1.15,2013-03-15 19:25:00,
2013-03-15 14:26:00,75.8,52.3,30.02,South,185,8.0,20.0,44,0.00,,,0.00,Wunderground v.1.15,2013-03-15 19:26:00,
2013-03-15 14:31:00,76.3,52.8,30.01,SW,216,8.0,14.0,44,0.00,,,0.00,Wunderground v.1.15,2013-03-15 19:31:00,
2013-03-15 14:33:00,76.5,53.0,30.01,SSW,210,7.0,14.0,44,0.00,,,0.00,Wunderground v.1.15,2013-03-15 19:33:00,
2013-03-15 14:35:00,76.7,51.9,30.01,WSW,253,7.0,14.0,42,0.00,,,0.00,Wunderground v.1.15,2013-03-15 19:35:00,
2013-03-15 14:36:00,76.7,51.2,30.01,WSW,246,7.0,14.0,41,0.00,,,0.00,Wunderground v.1.15,2013-03-15 19:36:00,
2013-03-15 14:37:00,76.8,51.3,30.01,South,186,7.0,14.0,41,0.00,,,0.00,Wunderground v.1.15,2013-03-15 19:37:00,
2013-03-15 14:38:00,77.0,50.8,30.01,South,172,7.0,14.0,40,0.00,,,0.00,Wunderground v.1.15,2013-03-15 19:38:00,
2013-03-15 14:43:00,77.0,51.5,30.01,South,191,7.0,17.0,41,0.00,,,0.00,Wunderground v.1.15,2013-03-15 19:43:00,
2013-03-15 14:44:00,77.0,51.5,30.01,SW,226,8.0,17.0,41,0.00,,,0.00,Wunderground v.1.15,2013-03-15 19:44:00,
2013-03-15 14:46:00,76.8,52.0,29.99,SE,144,8.0,17.0,42,0.00,,,0.00,Wunderground v.1.15,2013-03-15 19:46:00,
2013-03-15 14:47:00,76.7,51.2,29.99,South,186,8.0,17.0,41,0.00,,,0.00,Wunderground v.1.15,2013-03-15 19:47:00,
2013-03-15 14:50:00,76.8,51.3,29.99,South,189,8.0,17.0,41,0.00,,,0.00,Wunderground v.1.15,2013-03-15 19:50:00,
2013-03-15 14:52:00,77.0,50.8,29.99,SSW,193,7.0,16.0,40,0.00,,,0.00,Wunderground v.1.15,2013-03-15 19:52:00,
2013-03-15 14:53:00,77.0,50.8,29.99,South,181,8.0,16.0,40,0.00,,,0.00,Wunderground v.1.15,2013-03-15 19:53:00,
2013-03-15 14:54:00,77.0,50.8,29.99,South,179,8.0,16.0,40,0.00,,,0.00,Wunderground v.1.15,2013-03-15 19:54:00,
2013-03-15 14:55:00,77.2,51.0,29.99,SSW,209,7.0,16.0,40,0.00,,,0.00,Wunderground v.1.15,2013-03-15 19:55:00,
2013-03-15 14:57:00,77.2,51.0,29.99,SSE,168,7.0,16.0,40,0.00,,,0.00,Wunderground v.1.15,2013-03-15 19:57:00,
2013-03-15 14:58:00,77.2,51.0,29.99,SSW,203,7.0,16.0,40,0.00,,,0.00,Wunderground v.1.15,2013-03-15 19:58:00,
2013-03-15 15:00:00,77.2,51.7,29.99,South,189,7.0,16.0,41,0.00,,,0.00,Wunderground v.1.15,2013-03-15 20:00:00,
2013-03-15 15:01:00,77.2,51.0,29.99,South,175,7.0,16.0,40,0.00,,,0.00,Wunderground v.1.15,2013-03-15 20:01:00,
2013-03-15 15:03:00,77.4,49.8,29.99,SSW,202,7.0,16.0,38,0.00,,,0.00,Wunderground v.1.15,2013-03-15 20:03:00,
2013-03-15 15:04:00,77.4,49.8,29.99,SSE,157,7.0,16.0,38,0.00,,,0.00,Wunderground v.1.15,2013-03-15 20:04:00,
2013-03-15 15:06:00,77.0,48.7,29.99,SSE,164,8.0,16.0,37,0.00,,,0.00,Wunderground v.1.15,2013-03-15 20:06:00,
2013-03-15 15:10:00,77.0,47.2,29.99,SSW,192,9.0,18.0,35,0.00,,,0.00,Wunderground v.1.15,2013-03-15 20:10:00,
2013-03-15 15:11:00,77.2,48.9,29.99,South,174,8.0,18.0,37,0.00,,,0.00,Wunderground v.1.15,2013-03-15 20:11:00,
2013-03-15 15:12:00,77.6,49.3,29.99,SSE,164,8.0,18.0,37,0.00,,,0.00,Wunderground v.1.15,2013-03-15 20:12:00,
2013-03-15 15:16:00,78.1,49.0,29.97,South,191,7.0,18.0,36,0.00,,,0.00,Wunderground v.1.15,2013-03-15 20:16:00,
2013-03-15 15:17:00,78.3,49.1,29.97,SSW,195,6.0,18.0,36,0.00,,,0.00,Wunderground v.1.15,2013-03-15 20:17:00,
2013-03-15 15:20:00,78.3,50.6,29.97,SE,144,5.0,18.0,38,0.00,,,0.00,Wunderground v.1.15,2013-03-15 20:20:00,
2013-03-15 15:21:00,78.5,50.1,29.97,South,174,5.0,18.0,37,0.00,,,0.00,Wunderground v.1.15,2013-03-15 20:21:00,
2013-03-15 15:23:00,78.6,50.1,29.97,SE,133,5.0,18.0,37,0.00,,,0.00,Wunderground v.1.15,2013-03-15 20:23:00,
2013-03-15 15:25:00,78.1,47.4,29.97,South,188,6.0,18.0,34,0.00,,,0.00,Wunderground v.1.15,2013-03-15 20:25:00,
2013-03-15 15:28:00,77.9,48.8,29.97,South,188,7.0,18.0,36,0.00,,,0.00,Wunderground v.1.15,2013-03-15 20:28:00,
2013-03-15 15:30:00,77.7,47.9,29.97,SSW,199,8.0,8.0,35,0.00,,,0.00,Wunderground v.1.15,2013-03-15 20:30:00,
2013-03-15 15:32:00,77.7,47.9,29.96,South,176,9.0,16.0,35,0.00,,,0.00,Wunderground v.1.15,2013-03-15 20:32:00,
2013-03-15 15:34:00,78.1,48.2,29.96,South,185,8.0,16.0,35,0.00,,,0.00,Wunderground v.1.15,2013-03-15 20:34:00,
2013-03-15 15:35:00,78.3,49.1,29.96,SSE,168,7.0,16.0,36,0.00,,,0.00,Wunderground v.1.15,2013-03-15 20:35:00,
2013-03-15 15:37:00,78.5,47.8,29.96,SE,138,6.0,16.0,34,0.00,,,0.00,Wunderground v.1.15,2013-03-15 20:37:00,
2013-03-15 15:40:00,78.3,48.4,29.96,SSW,205,6.0,19.0,35,0.00,,,0.00,Wunderground v.1.15,2013-03-15 20:40:00,
2013-03-15 15:43:00,78.1,48.2,29.96,SSW,192,7.0,19.0,35,0.00,,,0.00,Wunderground v.1.15,2013-03-15 20:43:00,
2013-03-15 15:44:00,78.1,48.2,29.96,SE,126,8.0,19.0,35,0.00,,,0.00,Wunderground v.1.15,2013-03-15 20:44:00,
2013-03-15 15:46:00,77.9,47.3,29.96,SE,137,9.0,19.0,34,0.00,,,0.00,Wunderground v.1.15,2013-03-15 20:46:00,
2013-03-15 15:48:00,77.7,47.1,29.96,SSW,192,9.0,19.0,34,0.00,,,0.00,Wunderground v.1.15,2013-03-15 20:48:00,
2013-03-15 15:50:00,77.4,46.8,29.96,South,189,9.0,18.0,34,0.00,,,0.00,Wunderground v.1.15,2013-03-15 20:50:00,
2013-03-15 15:52:00,77.4,46.0,29.96,SE,143,9.0,18.0,33,0.00,,,0.00,Wunderground v.1.15,2013-03-15 20:52:00,
2013-03-15 15:54:00,77.4,46.0,29.96,SE,134,9.0,18.0,33,0.00,,,0.00,Wunderground v.1.15,2013-03-15 20:54:00,
2013-03-15 15:56:00,77.4,46.0,29.96,SSW,203,9.0,18.0,33,0.00,,,0.00,Wunderground v.1.15,2013-03-15 20:56:00,
2013-03-15 16:00:00,77.9,46.5,29.96,SE,141,9.0,17.0,33,0.00,,,0.00,Wunderground v.1.15,2013-03-15 21:00:00,
2013-03-15 16:03:00,77.9,46.5,29.95,SE,136,9.0,17.0,33,0.00,,,0.00,Wunderground v.1.15,2013-03-15 21:03:00,
2013-03-15 16:05:00,78.1,46.6,29.95,SSE,168,9.0,17.0,33,0.00,,,0.00,Wunderground v.1.15,2013-03-15 21:05:00,
2013-03-15 16:10:00,78.3,46.8,29.95,SSW,210,8.0,8.0,33,0.00,,,0.00,Wunderground v.1.15,2013-03-15 21:10:00,
2013-03-15 16:11:00,78.5,47.0,29.95,South,179,8.0,19.0,33,0.00,,,0.00,Wunderground v.1.15,2013-03-15 21:11:00,
2013-03-15 16:12:00,78.3,46.0,29.95,SE,128,8.0,19.0,32,0.00,,,0.00,Wunderground v.1.15,2013-03-15 21:12:00,
2013-03-15 16:17:00,78.5,46.2,29.94,ESE,116,8.0,19.0,32,0.00,,,0.00,Wunderground v.1.15,2013-03-15 21:17:00,
2013-03-15 16:18:00,78.5,45.3,29.94,SSE,154,8.0,19.0,31,0.00,,,0.00,Wunderground v.1.15,2013-03-15 21:18:00,
2013-03-15 16:20:00,78.5,45.3,29.94,South,182,8.0,8.0,31,0.00,,,0.00,Wunderground v.1.15,2013-03-15 21:20:00,
2013-03-15 16:21:00,78.5,45.3,29.94,South,181,8.0,11.0,31,0.00,,,0.00,Wunderground v.1.15,2013-03-15 21:21:00,
2013-03-15 16:22:00,78.6,45.4,29.94,South,178,8.0,19.0,31,0.00,,,0.00,Wunderground v.1.15,2013-03-15 21:22:00,
2013-03-15 16:25:00,78.6,45.4,29.94,SW,222,7.0,19.0,31,0.00,,,0.00,Wunderground v.1.15,2013-03-15 21:25:00,
2013-03-15 16:26:00,78.8,45.6,29.94,SSE,161,7.0,19.0,31,0.00,,,0.00,Wunderground v.1.15,2013-03-15 21:26:00,
2013-03-15 16:27:00,78.8,45.6,29.94,South,181,7.0,19.0,31,0.00,,,0.00,Wunderground v.1.15,2013-03-15 21:27:00,
2013-03-15 16:31:00,78.6,44.6,29.94,SSE,160,7.0,17.0,30,0.00,,,0.00,Wunderground v.1.15,2013-03-15 21:31:00,
2013-03-15 16:32:00,78.6,45.4,29.94,SSE,155,8.0,18.0,31,0.00,,,0.00,Wunderground v.1.15,2013-03-15 21:32:00,
2013-03-15 16:33:00,78.6,45.4,29.94,SW,222,8.0,18.0,31,0.00,,,0.00,Wunderground v.1.15,2013-03-15 21:33:00,
2013-03-15 16:34:00,78.6,45.4,29.94,SSW,205,8.0,18.0,31,0.00,,,0.00,Wunderground v.1.15,2013-03-15 21:34:00,
2013-03-15 16:40:00,78.6,45.4,29.94,SSW,202,7.0,19.0,31,0.00,,,0.00,Wunderground v.1.15,2013-03-15 21:40:00,
2013-03-15 16:42:00,78.8,44.7,29.94,SSW,210,7.0,19.0,30,0.00,,,0.00,Wunderground v.1.15,2013-03-15 21:42:00,
2013-03-15 16:43:00,78.8,43.8,29.94,SSE,155,7.0,19.0,29,0.00,,,0.00,Wunderground v.1.15,2013-03-15 21:43:00,
2013-03-15 16:48:00,79.6,44.5,29.93,SW,223,7.0,19.0,29,0.00,,,0.00,Wunderground v.1.15,2013-03-15 21:48:00,
2013-03-15 16:50:00,79.8,43.8,29.93,SW,215,6.0,19.0,28,0.00,,,0.00,Wunderground v.1.15,2013-03-15 21:50:00,
2013-03-15 16:51:00,79.8,42.8,29.93,SSW,202,6.0,17.0,27,0.00,,,0.00,Wunderground v.1.15,2013-03-15 21:51:00,
2013-03-15 16:55:00,79.8,43.8,29.93,SSW,206,6.0,18.0,28,0.00,,,0.00,Wunderground v.1.15,2013-03-15 21:55:00,
2013-03-15 16:56:00,79.6,43.6,29.93,South,182,6.0,18.0,28,0.00,,,0.00,Wunderground v.1.15,2013-03-15 21:56:00,
2013-03-15 17:00:00,79.0,43.1,29.93,SSW,206,9.0,9.0,28,0.00,,,0.00,Wunderground v.1.15,2013-03-15 22:00:00,
2013-03-15 17:01:00,79.0,42.2,29.92,SSW,210,8.0,16.0,27,0.00,,,0.00,Wunderground v.1.15,2013-03-15 22:01:00,
2013-03-15 17:05:00,79.0,43.1,29.92,South,172,7.0,16.0,28,0.00,,,0.00,Wunderground v.1.15,2013-03-15 22:05:00,
2013-03-15 17:06:00,79.0,43.1,29.92,SSW,199,7.0,16.0,28,0.00,,,0.00,Wunderground v.1.15,2013-03-15 22:06:00,
2013-03-15 17:10:00,78.8,42.9,29.92,South,175,7.0,18.0,28,0.00,,,0.00,Wunderground v.1.15,2013-03-15 22:10:00,
2013-03-15 17:15:00,79.0,42.2,29.92,SSW,203,8.0,18.0,27,0.00,,,0.00,Wunderground v.1.15,2013-03-15 22:15:00,
2013-03-15 17:16:00,78.8,42.9,29.92,SE,141,8.0,18.0,28,0.00,,,0.00,Wunderground v.1.15,2013-03-15 22:16:00,
2013-03-15 17:18:00,78.6,42.8,29.92,ESE,117,8.0,18.0,28,0.00,,,0.00,Wunderground v.1.15,2013-03-15 22:18:00,
2013-03-15 17:20:00,78.6,42.8,29.92,SSE,158,8.0,17.0,28,0.00,,,0.00,Wunderground v.1.15,2013-03-15 22:20:00,
2013-03-15 17:23:00,79.0,43.1,29.92,SSE,148,7.0,17.0,28,0.00,,,0.00,Wunderground v.1.15,2013-03-15 22:23:00,
2013-03-15 17:24:00,79.2,43.3,29.92,SSE,148,7.0,17.0,28,0.00,,,0.00,Wunderground v.1.15,2013-03-15 22:24:00,
2013-03-15 17:26:00,79.2,42.3,29.92,SSE,157,7.0,17.0,27,0.00,,,0.00,Wunderground v.1.15,2013-03-15 22:26:00,
2013-03-15 17:30:00,78.6,41.8,29.92,ESE,117,8.0,18.0,27,0.00,,,0.00,Wunderground v.1.15,2013-03-15 22:30:00,
2013-03-15 17:31:00,78.5,41.7,29.92,South,175,8.0,18.0,27,0.00,,,0.00,Wunderground v.1.15,2013-03-15 22:31:00,
2013-03-15 17:32:00,78.5,41.7,29.92,South,175,8.0,18.0,27,0.00,,,0.00,Wunderground v.1.15,2013-03-15 22:32:00,
2013-03-15 17:33:00,78.6,41.8,29.92,SW,227,8.0,18.0,27,0.00,,,0.00,Wunderground v.1.15,2013-03-15 22:33:00,
2013-03-15 17:36:00,78.6,41.8,29.92,South,176,8.0,18.0,27,0.00,,,0.00,Wunderground v.1.15,2013-03-15 22:36:00,
2013-03-15 17:37:00,78.6,41.8,29.92,South,182,8.0,18.0,27,0.00,,,0.00,Wunderground v.1.15,2013-03-15 22:37:00,
2013-03-15 17:38:00,78.5,41.7,29.92,SSW,209,8.0,18.0,27,0.00,,,0.00,Wunderground v.1.15,2013-03-15 22:38:00,
2013-03-15 17:41:00,78.6,41.8,29.92,SSE,168,8.0,10.0,27,0.00,,,0.00,Wunderground v.1.15,2013-03-15 22:41:00,
2013-03-15 17:45:00,78.5,41.7,29.92,SE,131,8.0,20.0,27,0.00,,,0.00,Wunderground v.1.15,2013-03-15 22:45:00,
2013-03-15 17:47:00,78.5,41.7,29.91,SE,134,8.0,20.0,27,0.00,,,0.00,Wunderground v.1.15,2013-03-15 22:47:00,
2013-03-15 17:48:00,78.5,41.7,29.91,SSE,150,8.0,20.0,27,0.00,,,0.00,Wunderground v.1.15,2013-03-15 22:48:00,
2013-03-15 17:50:00,78.3,41.6,29.91,SSE,168,8.0,20.0,27,0.00,,,0.00,Wunderground v.1.15,2013-03-15 22:50:00,
2013-03-15 17:54:00,78.3,41.6,29.91,South,189,8.0,20.0,27,0.00,,,0.00,Wunderground v.1.15,2013-03-15 22:54:00,
2013-03-15 17:55:00,78.3,41.6,29.91,SW,219,8.0,20.0,27,0.00,,,0.00,Wunderground v.1.15,2013-03-15 22:55:00,
2013-03-15 17:57:00,78.6,42.8,29.91,WSW,244,8.0,20.0,28,0.00,,,0.00,Wunderground v.1.15,2013-03-15 22:57:00,
2013-03-15 17:58:00,78.6,42.8,29.91,SSE,161,7.0,20.0,28,0.00,,,0.00,Wunderground v.1.15,2013-03-15 22:58:00,
2013-03-15 18:00:00,78.8,42.0,29.91,SSE,150,7.0,18.0,27,0.00,,,0.00,Wunderground v.1.15,2013-03-15 23:00:00,
2013-03-15 18:01:00,78.6,41.8,29.91,SE,134,7.0,18.0,27,0.00,,,0.00,Wunderground v.1.15,2013-03-15 23:01:00,
2013-03-15 18:05:00,78.8,41.0,29.91,SSW,208,7.0,18.0,26,0.00,,,0.00,Wunderground v.1.15,2013-03-15 23:05:00,
2013-03-15 18:06:00,78.6,40.8,29.91,SSE,164,7.0,18.0,26,0.00,,,0.00,Wunderground v.1.15,2013-03-15 23:06:00,
2013-03-15 18:07:00,78.5,40.7,29.91,South,181,8.0,18.0,26,0.00,,,0.00,Wunderground v.1.15,2013-03-15 23:07:00,
2013-03-15 18:11:00,78.3,40.6,29.91,SE,128,7.0,15.0,26,0.00,,,0.00,Wunderground v.1.15,2013-03-15 23:11:00,
2013-03-15 18:12:00,78.3,40.6,29.91,SSW,195,8.0,15.0,26,0.00,,,0.00,Wunderground v.1.15,2013-03-15 23:12:00,
2013-03-15 18:13:00,78.3,40.6,29.91,South,188,8.0,15.0,26,0.00,,,0.00,Wunderground v.1.15,2013-03-15 23:13:00,
2013-03-15 18:16:00,77.9,40.2,29.91,SE,145,8.0,17.0,26,0.00,,,0.00,Wunderground v.1.15,2013-03-15 23:16:00,
2013-03-15 18:17:00,77.9,40.2,29.91,South,186,8.0,17.0,26,0.00,,,0.00,Wunderground v.1.15,2013-03-15 23:17:00,
2013-03-15 18:18:00,77.9,40.2,29.91,SE,133,8.0,17.0,26,0.00,,,0.00,Wunderground v.1.15,2013-03-15 23:18:00,
2013-03-15 18:20:00,77.7,40.1,29.91,South,175,8.0,17.0,26,0.00,,,0.00,Wunderground v.1.15,2013-03-15 23:20:00,
2013-03-15 18:25:00,77.9,40.2,29.91,South,186,9.0,17.0,26,0.00,,,0.00,Wunderground v.1.15,2013-03-15 23:25:00,
2013-03-15 18:26:00,77.9,40.2,29.91,South,185,8.0,17.0,26,0.00,,,0.00,Wunderground v.1.15,2013-03-15 23:26:00,
2013-03-15 18:30:00,78.1,40.4,29.91,South,188,7.0,19.0,26,0.00,,,0.00,Wunderground v.1.15,2013-03-15 23:30:00,
2013-03-15 18:32:00,78.1,40.4,29.91,South,175,6.0,19.0,26,0.00,,,0.00,Wunderground v.1.15,2013-03-15 23:32:00,
2013-03-15 18:35:00,78.1,40.4,29.91,South,186,6.0,19.0,26,0.00,,,0.00,Wunderground v.1.15,2013-03-15 23:35:00,
2013-03-15 18:37:00,78.1,40.4,29.91,SSE,164,6.0,19.0,26,0.00,,,0.00,Wunderground v.1.15,2013-03-15 23:37:00,
2013-03-15 18:41:00,78.1,40.4,29.91,South,172,5.0,17.0,26,0.00,,,0.00,Wunderground v.1.15,2013-03-15 23:41:00,
2013-03-15 18:44:00,77.9,40.2,29.91,SSE,161,5.0,17.0,26,0.00,,,0.00,Wunderground v.1.15,2013-03-15 23:44:00,
2013-03-15 18:45:00,77.9,40.2,29.91,SSE,165,4.0,17.0,26,0.00,,,0.00,Wunderground v.1.15,2013-03-15 23:45:00,
2013-03-15 18:46:00,77.9,40.2,29.91,South,171,5.0,17.0,26,0.00,,,0.00,Wunderground v.1.15,2013-03-15 23:46:00,
2013-03-15 18:50:00,77.6,39.0,29.91,SSW,196,6.0,13.0,25,0.00,,,0.00,Wunderground v.1.15,2013-03-15 23:50:00,
2013-03-15 18:52:00,77.6,39.0,29.91,South,189,7.0,13.0,25,0.00,,,0.00,Wunderground v.1.15,2013-03-15 23:52:00,
2013-03-15 18:54:00,77.4,38.8,29.91,SSE,154,8.0,13.0,25,0.00,,,0.00,Wunderground v.1.15,2013-03-15 23:54:00,
2013-03-15 18:57:00,77.4,39.8,29.91,SSE,154,8.0,13.0,26,0.00,,,0.00,Wunderground v.1.15,2013-03-15 23:57:00,
2013-03-15 18:58:00,77.2,39.6,29.91,South,178,8.0,13.0,26,0.00,,,0.00,Wunderground v.1.15,2013-03-15 23:58:00,
2013-03-15 18:59:00,77.2,39.6,29.91,South,169,8.0,8.0,26,0.00,,,0.00,Wunderground v.1.15,2013-03-15 23:59:00,
2013-03-15 19:03:00,77.0,39.5,29.91,SSE,162,7.0,19.0,26,0.00,,,0.00,Wunderground v.1.15,2013-03-16 00:03:00,
2013-03-15 19:05:00,77.0,39.5,29.91,South,172,6.0,19.0,26,0.00,,,0.00,Wunderground v.1.15,2013-03-16 00:05:00,
2013-03-15 19:07:00,77.0,39.5,29.91,SE,138,6.0,19.0,26,0.00,,,0.00,Wunderground v.1.15,2013-03-16 00:07:00,
2013-03-15 19:09:00,76.8,39.3,29.91,SW,219,6.0,16.0,26,0.00,,,0.00,Wunderground v.1.15,2013-03-16 00:09:00,
2013-03-15 19:13:00,76.8,40.3,29.91,SSW,206,6.0,16.0,27,0.00,,,0.00,Wunderground v.1.15,2013-03-16 00:13:00,
2013-03-15 19:14:00,76.8,40.3,29.91,South,184,6.0,16.0,27,0.00,,,0.00,Wunderground v.1.15,2013-03-16 00:14:00,
2013-03-15 19:18:00,76.7,39.2,29.91,South,178,6.0,16.0,26,0.00,,,0.00,Wunderground v.1.15,2013-03-16 00:18:00,
2013-03-15 19:20:00,76.5,40.0,29.91,South,171,6.0,6.0,27,0.00,,,0.00,Wunderground v.1.15,2013-03-16 00:20:00,
2013-03-15 19:23:00,76.3,39.8,29.91,South,172,5.0,16.0,27,0.00,,,0.00,Wunderground v.1.15,2013-03-16 00:23:00,
2013-03-15 19:25:00,76.1,39.7,29.91,SSW,198,5.0,16.0,27,0.00,,,0.00,Wunderground v.1.15,2013-03-16 00:25:00,
2013-03-15 19:30:00,76.0,39.6,29.91,SSE,164,3.0,13.0,27,0.00,,,0.00,Wunderground v.1.15,2013-03-16 00:30:00,
2013-03-15 19:32:00,75.8,39.4,29.91,South,176,4.0,13.0,27,0.00,,,0.00,Wunderground v.1.15,2013-03-16 00:32:00,
2013-03-15 19:34:00,75.6,39.2,29.91,SSE,167,5.0,13.0,27,0.00,,,0.00,Wunderground v.1.15,2013-03-16 00:34:00,
2013-03-15 19:36:00,75.6,39.2,29.91,South,184,4.0,13.0,27,0.00,,,0.00,Wunderground v.1.15,2013-03-16 00:36:00,
2013-03-15 19:38:00,75.4,40.0,29.91,South,186,5.0,13.0,28,0.00,,,0.00,Wunderground v.1.15,2013-03-16 00:38:00,
2013-03-15 19:40:00,75.3,39.9,29.91,South,185,5.0,13.0,28,0.00,,,0.00,Wunderground v.1.15,2013-03-16 00:40:00,
2013-03-15 19:43:00,75.1,39.8,29.91,South,191,3.0,10.0,28,0.00,,,0.00,Wunderground v.1.15,2013-03-16 00:43:00,
2013-03-15 19:45:00,74.9,39.6,29.91,South,186,3.0,10.0,28,0.00,,,0.00,Wunderground v.1.15,2013-03-16 00:45:00,
2013-03-15 19:48:00,74.7,39.4,29.91,South,178,4.0,10.0,28,0.00,,,0.00,Wunderground v.1.15,2013-03-16 00:48:00,
2013-03-15 19:50:00,74.7,39.4,29.91,South,179,4.0,4.0,28,0.00,,,0.00,Wunderground v.1.15,2013-03-16 00:50:00,
2013-03-15 19:54:00,74.6,39.3,29.91,South,188,4.0,13.0,28,0.00,,,0.00,Wunderground v.1.15,2013-03-16 00:54:00,
2013-03-15 19:56:00,74.4,38.2,29.91,South,186,3.0,13.0,27,0.00,,,0.00,Wunderground v.1.15,2013-03-16 00:56:00,
2013-03-15 19:58:00,74.2,38.1,29.91,South,185,3.0,13.0,27,0.00,,,0.00,Wunderground v.1.15,2013-03-16 00:58:00,
2013-03-15 19:59:00,74.2,39.0,29.91,South,189,3.0,10.0,28,0.00,,,0.00,Wunderground v.1.15,2013-03-16 00:59:00,
2013-03-15 20:01:00,74.0,38.8,29.91,South,189,2.0,10.0,28,0.00,,,0.00,Wunderground v.1.15,2013-03-16 01:01:00,
2013-03-15 20:04:00,73.9,38.7,29.91,South,189,2.0,10.0,28,0.00,,,0.00,Wunderground v.1.15,2013-03-16 01:04:00,
2013-03-15 20:07:00,73.7,38.6,29.91,South,189,2.0,10.0,28,0.00,,,0.00,Wunderground v.1.15,2013-03-16 01:07:00,
2013-03-15 20:10:00,73.5,39.3,29.91,South,189,1.0,7.0,29,0.00,,,0.00,Wunderground v.1.15,2013-03-16 01:10:00,
2013-03-15 20:12:00,73.3,39.1,29.91,South,189,1.0,7.0,29,0.00,,,0.00,Wunderground v.1.15,2013-03-16 01:12:00,
2013-03-15 20:15:00,73.2,39.0,29.91,South,189,1.0,7.0,29,0.00,,,0.00,Wunderground v.1.15,2013-03-16 01:15:00,
2013-03-15 20:17:00,73.0,38.9,29.91,South,189,0.0,7.0,29,0.00,,,0.00,Wunderground v.1.15,2013-03-16 01:17:00,
2013-03-15 20:18:00,73.0,38.9,29.91,South,189,0.0,7.0,29,0.00,,,0.00,Wunderground v.1.15,2013-03-16 01:18:00,
2013-03-15 20:20:00,72.8,39.5,29.91,South,189,0.0,3.0,30,0.00,,,0.00,Wunderground v.1.15,2013-03-16 01:20:00,
2013-03-15 20:24:00,72.5,39.3,29.91,South,189,0.0,3.0,30,0.00,,,0.00,Wunderground v.1.15,2013-03-16 01:24:00,
2013-03-15 20:25:00,72.3,39.1,29.91,South,189,0.0,3.0,30,0.00,,,0.00,Wunderground v.1.15,2013-03-16 01:25:00,
2013-03-15 20:26:00,72.3,40.0,29.91,South,189,0.0,3.0,31,0.00,,,0.00,Wunderground v.1.15,2013-03-16 01:26:00,
2013-03-15 20:28:00,72.1,39.8,29.91,South,189,0.0,3.0,31,0.00,,,0.00,Wunderground v.1.15,2013-03-16 01:28:00,
2013-03-15 20:33:00,71.8,39.5,29.91,South,189,0.0,2.0,31,0.00,,,0.00,Wunderground v.1.15,2013-03-16 01:33:00,
2013-03-15 20:34:00,71.8,39.5,29.91,South,189,0.0,2.0,31,0.00,,,0.00,Wunderground v.1.15,2013-03-16 01:34:00,
2013-03-15 20:35:00,71.6,39.3,29.91,South,189,0.0,2.0,31,0.00,,,0.00,Wunderground v.1.15,2013-03-16 01:35:00,
2013-03-15 20:40:00,71.3,40.7,29.91,SE,137,1.0,7.0,33,0.00,,,0.00,Wunderground v.1.15,2013-03-16 01:40:00,
2013-03-15 20:42:00,71.5,44.5,29.91,South,175,3.0,9.0,38,0.00,,,0.00,Wunderground v.1.15,2013-03-16 01:42:00,
2013-03-15 20:43:00,71.5,45.9,29.91,SSE,165,4.0,9.0,40,0.00,,,0.00,Wunderground v.1.15,2013-03-16 01:43:00,
2013-03-15 20:45:00,71.5,46.6,29.91,SE,137,5.0,10.0,41,0.00,,,0.00,Wunderground v.1.15,2013-03-16 01:45:00,
2013-03-15 20:50:00,71.5,47.8,29.91,SE,133,7.0,18.0,43,0.00,,,0.00,Wunderground v.1.15,2013-03-16 01:50:00,
2013-03-15 20:52:00,71.5,47.8,29.91,SSE,154,6.0,18.0,43,0.00,,,0.00,Wunderground v.1.15,2013-03-16 01:52:00,
2013-03-15 20:55:00,71.3,48.3,29.91,South,175,5.0,18.0,44,0.00,,,0.00,Wunderground v.1.15,2013-03-16 01:55:00,
2013-03-15 20:57:00,71.3,48.3,29.91,SSE,158,5.0,18.0,44,0.00,,,0.00,Wunderground v.1.15,2013-03-16 01:57:00,
2013-03-15 21:00:00,71.1,48.7,29.91,SE,128,5.0,13.0,45,0.00,,,0.00,Wunderground v.1.15,2013-03-16 02:00:00,
2013-03-15 21:02:00,71.1,48.7,29.92,SE,145,5.0,13.0,45,0.00,,,0.00,Wunderground v.1.15,2013-03-16 02:02:00,
2013-03-15 21:05:00,70.9,48.5,29.92,SE,144,5.0,13.0,45,0.00,,,0.00,Wunderground v.1.15,2013-03-16 02:05:00,
2013-03-15 21:08:00,70.6,48.2,29.92,SE,144,4.0,13.0,45,0.00,,,0.00,Wunderground v.1.15,2013-03-16 02:08:00,
2013-03-15 21:12:00,70.3,49.1,29.92,SE,141,4.0,11.0,47,0.00,,,0.00,Wunderground v.1.15,2013-03-16 02:12:00,
2013-03-15 21:13:00,70.3,49.7,29.92,South,171,4.0,11.0,48,0.00,,,0.00,Wunderground v.1.15,2013-03-16 02:13:00,
2013-03-15 21:14:00,70.3,49.7,29.92,SE,143,5.0,11.0,48,0.00,,,0.00,Wunderground v.1.15,2013-03-16 02:14:00,
2013-03-15 21:15:00,70.3,49.7,29.92,SSE,167,5.0,11.0,48,0.00,,,0.00,Wunderground v.1.15,2013-03-16 02:15:00,
2013-03-15 21:19:00,69.9,49.9,29.92,SSE,157,7.0,11.0,49,0.00,,,0.00,Wunderground v.1.15,2013-03-16 02:19:00,
2013-03-15 21:22:00,69.9,49.9,29.92,ESE,123,7.0,10.0,49,0.00,,,0.00,Wunderground v.1.15,2013-03-16 02:22:00,
2013-03-15 21:24:00,69.8,49.2,29.92,SE,141,7.0,11.0,48,0.00,,,0.00,Wunderground v.1.15,2013-03-16 02:24:00,
2013-03-15 21:27:00,69.6,49.0,29.92,SSE,147,8.0,14.0,48,0.00,,,0.00,Wunderground v.1.15,2013-03-16 02:27:00,
2013-03-15 21:28:00,69.6,49.0,29.92,South,178,8.0,14.0,48,0.00,,,0.00,Wunderground v.1.15,2013-03-16 02:28:00,
2013-03-15 21:30:00,69.4,48.9,29.92,SSE,148,9.0,9.0,48,0.00,,,0.00,Wunderground v.1.15,2013-03-16 02:30:00,
2013-03-15 21:32:00,69.4,49.4,29.92,SSE,148,10.0,13.0,49,0.00,,,0.00,Wunderground v.1.15,2013-03-16 02:32:00,
2013-03-15 21:35:00,69.3,49.3,29.92,SE,145,9.0,13.0,49,0.00,,,0.00,Wunderground v.1.15,2013-03-16 02:35:00,
2013-03-15 21:37:00,69.1,49.1,29.92,SE,144,9.0,13.0,49,0.00,,,0.00,Wunderground v.1.15,2013-03-16 02:37:00,
2013-03-15 21:39:00,68.9,49.5,29.92,SE,143,9.0,19.0,50,0.00,,,0.00,Wunderground v.1.15,2013-03-16 02:39:00,
2013-03-15 21:40:00,68.9,49.5,29.92,SE,128,9.0,9.0,50,0.00,,,0.00,Wunderground v.1.15,2013-03-16 02:40:00,
2013-03-15 21:44:00,68.6,50.3,29.92,SSW,192,8.0,19.0,52,0.00,,,0.00,Wunderground v.1.15,2013-03-16 02:44:00,
2013-03-15 21:46:00,68.4,50.1,29.93,SE,143,8.0,19.0,52,0.00,,,0.00,Wunderground v.1.15,2013-03-16 02:46:00,
2013-03-15 21:47:00,68.4,50.1,29.93,SE,137,8.0,19.0,52,0.00,,,0.00,Wunderground v.1.15,2013-03-16 02:47:00,
2013-03-15 21:50:00,68.3,50.0,29.93,SSE,161,8.0,8.0,52,0.00,,,0.00,Wunderground v.1.15,2013-03-16 02:50:00,
2013-03-15 21:51:00,68.3,50.0,29.93,SE,143,8.0,17.0,52,0.00,,,0.00,Wunderground v.1.15,2013-03-16 02:51:00,
2013-03-15 21:55:00,68.1,50.3,29.93,SSE,157,7.0,17.0,53,0.00,,,0.00,Wunderground v.1.15,2013-03-16 02:55:00,
2013-03-15 21:56:00,68.1,50.3,29.93,SSE,150,7.0,17.0,53,0.00,,,0.00,Wunderground v.1.15,2013-03-16 02:56:00,
2013-03-15 21:57:00,67.8,50.0,29.93,SSE,151,6.0,17.0,53,0.00,,,0.00,Wunderground v.1.15,2013-03-16 02:57:00,
2013-03-15 22:02:00,67.6,49.9,29.93,SSE,152,5.0,18.0,53,0.00,,,0.00,Wunderground v.1.15,2013-03-16 03:02:00,
2013-03-15 22:03:00,67.4,49.7,29.93,SE,140,5.0,18.0,53,0.00,,,0.00,Wunderground v.1.15,2013-03-16 03:03:00,
2013-03-15 22:07:00,67.3,49.6,29.93,SSE,154,6.0,18.0,53,0.00,,,0.00,Wunderground v.1.15,2013-03-16 03:07:00,
2013-03-15 22:10:00,67.1,49.4,29.93,SSE,154,6.0,6.0,53,0.00,,,0.00,Wunderground v.1.15,2013-03-16 03:10:00,
2013-03-15 22:11:00,66.9,49.2,29.93,SE,134,7.0,13.0,53,0.00,,,0.00,Wunderground v.1.15,2013-03-16 03:11:00,
2013-03-15 22:12:00,66.9,49.2,29.93,SSE,165,7.0,13.0,53,0.00,,,0.00,Wunderground v.1.15,2013-03-16 03:12:00,
2013-03-15 22:13:00,66.9,49.2,29.93,ESE,123,7.0,13.0,53,0.00,,,0.00,Wunderground v.1.15,2013-03-16 03:13:00,
2013-03-15 22:16:00,66.8,49.1,29.93,SSE,160,7.0,13.0,53,0.00,,,0.00,Wunderground v.1.15,2013-03-16 03:16:00,
2013-03-15 22:17:00,66.8,49.1,29.93,SSE,154,7.0,13.0,53,0.00,,,0.00,Wunderground v.1.15,2013-03-16 03:17:00,
2013-03-15 22:20:00,66.6,49.4,29.93,SSE,148,8.0,8.0,54,0.00,,,0.00,Wunderground v.1.15,2013-03-16 03:20:00,
2013-03-15 22:22:00,66.4,49.2,29.93,South,169,8.0,13.0,54,0.00,,,0.00,Wunderground v.1.15,2013-03-16 03:22:00,
2013-03-15 22:24:00,66.4,49.2,29.93,ESE,116,7.0,13.0,54,0.00,,,0.00,Wunderground v.1.15,2013-03-16 03:24:00,
2013-03-15 22:25:00,66.3,49.2,29.93,SSE,147,7.0,13.0,54,0.00,,,0.00,Wunderground v.1.15,2013-03-16 03:25:00,
2013-03-15 22:27:00,66.3,49.2,29.93,SSE,147,7.0,13.0,54,0.00,,,0.00,Wunderground v.1.15,2013-03-16 03:27:00,
2013-03-15 22:30:00,66.1,49.5,29.93,SE,124,7.0,17.0,55,0.00,,,0.00,Wunderground v.1.15,2013-03-16 03:30:00,
2013-03-15 22:31:00,66.1,49.5,29.93,SE,144,7.0,17.0,55,0.00,,,0.00,Wunderground v.1.15,2013-03-16 03:31:00,
2013-03-15 22:33:00,66.0,49.4,29.93,South,182,7.0,17.0,55,0.00,,,0.00,Wunderground v.1.15,2013-03-16 03:33:00,
2013-03-15 22:35:00,65.8,49.2,29.93,South,171,7.0,17.0,55,0.00,,,0.00,Wunderground v.1.15,2013-03-16 03:35:00,
2013-03-15 22:37:00,65.8,49.2,29.93,SE,143,6.0,17.0,55,0.00,,,0.00,Wunderground v.1.15,2013-03-16 03:37:00,
2013-03-15 22:40:00,65.6,49.0,29.93,SSE,158,6.0,17.0,55,0.00,,,0.00,Wunderground v.1.15,2013-03-16 03:40:00,
2013-03-15 22:42:00,65.5,48.9,29.93,South,172,6.0,17.0,55,0.00,,,0.00,Wunderground v.1.15,2013-03-16 03:42:00,
2013-03-15 22:43:00,65.5,48.9,29.93,SSE,164,6.0,17.0,55,0.00,,,0.00,Wunderground v.1.15,2013-03-16 03:43:00,
2013-03-15 22:47:00,65.3,48.7,29.93,SSE,164,5.0,17.0,55,0.00,,,0.00,Wunderground v.1.15,2013-03-16 03:47:00,
2013-03-15 22:49:00,65.2,48.6,29.93,South,178,5.0,17.0,55,0.00,,,0.00,Wunderground v.1.15,2013-03-16 03:49:00,
2013-03-15 22:52:00,65.0,48.4,29.93,South,175,4.0,13.0,55,0.00,,,0.00,Wunderground v.1.15,2013-03-16 03:52:00,
2013-03-15 22:54:00,65.0,48.4,29.93,SE,143,4.0,13.0,55,0.00,,,0.00,Wunderground v.1.15,2013-03-16 03:54:00,
2013-03-15 22:58:00,64.8,48.2,29.93,ESE,121,4.0,13.0,55,0.00,,,0.00,Wunderground v.1.15,2013-03-16 03:58:00,
2013-03-15 22:59:00,64.7,48.2,29.93,South,175,4.0,12.0,55,0.00,,,0.00,Wunderground v.1.15,2013-03-16 03:59:00,
2013-03-15 23:00:00,64.7,48.2,29.93,SSE,160,5.0,12.0,55,0.00,,,0.00,Wunderground v.1.15,2013-03-16 04:00:00,
2013-03-15 23:01:00,64.7,48.2,29.93,SSE,147,5.0,12.0,55,0.00,,,0.00,Wunderground v.1.15,2013-03-16 04:01:00,
2013-03-15 23:06:00,64.5,48.0,29.93,SSE,158,7.0,12.0,55,0.00,,,0.00,Wunderground v.1.15,2013-03-16 04:06:00,
2013-03-15 23:07:00,64.5,48.0,29.93,ESE,123,7.0,12.0,55,0.00,,,0.00,Wunderground v.1.15,2013-03-16 04:07:00,
2013-03-15 23:11:00,64.3,48.3,29.93,SSE,160,6.0,14.0,56,0.00,,,0.00,Wunderground v.1.15,2013-03-16 04:11:00,
2013-03-15 23:14:00,64.2,48.2,29.93,South,172,5.0,14.0,56,0.00,,,0.00,Wunderground v.1.15,2013-03-16 04:14:00,
2013-03-15 23:15:00,64.2,48.2,29.93,SSE,162,5.0,14.0,56,0.00,,,0.00,Wunderground v.1.15,2013-03-16 04:15:00,
2013-03-15 23:17:00,64.0,48.5,29.93,SSE,147,5.0,14.0,57,0.00,,,0.00,Wunderground v.1.15,2013-03-16 04:17:00,
2013-03-15 23:20:00,63.9,48.4,29.93,ESE,121,5.0,16.0,57,0.00,,,0.00,Wunderground v.1.15,2013-03-16 04:20:00,
2013-03-15 23:23:00,63.9,48.4,29.93,SE,143,5.0,16.0,57,0.00,,,0.00,Wunderground v.1.15,2013-03-16 04:23:00,
2013-03-15 23:27:00,63.7,48.6,29.93,SE,140,4.0,16.0,58,0.00,,,0.00,Wunderground v.1.15,2013-03-16 04:27:00,
2013-03-15 23:30:00,63.5,48.5,29.93,SSE,164,4.0,4.0,58,0.00,,,0.00,Wunderground v.1.15,2013-03-16 04:30:00,
2013-03-15 23:31:00,63.5,48.9,29.93,SSE,151,4.0,11.0,59,0.00,,,0.00,Wunderground v.1.15,2013-03-16 04:31:00,
2013-03-15 23:33:00,63.4,48.8,29.93,South,175,5.0,11.0,59,0.00,,,0.00,Wunderground v.1.15,2013-03-16 04:33:00,
2013-03-15 23:35:00,63.4,48.8,29.93,SE,136,5.0,11.0,59,0.00,,,0.00,Wunderground v.1.15,2013-03-16 04:35:00,
2013-03-15 23:36:00,63.2,49.1,29.93,SSE,150,5.0,11.0,60,0.00,,,0.00,Wunderground v.1.15,2013-03-16 04:36:00,
2013-03-15 23:40:00,63.2,49.1,29.93,South,182,5.0,11.0,60,0.00,,,0.00,Wunderground v.1.15,2013-03-16 04:40:00,
2013-03-15 23:43:00,63.1,49.4,29.93,South,182,5.0,11.0,61,0.00,,,0.00,Wunderground v.1.15,2013-03-16 04:43:00,
2013-03-15 23:44:00,63.1,49.4,29.93,South,182,5.0,11.0,61,0.00,,,0.00,Wunderground v.1.15,2013-03-16 04:44:00,
2013-03-15 23:46:00,62.9,49.7,29.92,SE,136,4.0,11.0,62,0.00,,,0.00,Wunderground v.1.15,2013-03-16 04:46:00,
2013-03-15 23:48:00,62.9,49.7,29.92,South,181,4.0,11.0,62,0.00,,,0.00,Wunderground v.1.15,2013-03-16 04:48:00,
2013-03-15 23:51:00,62.7,49.5,29.92,SE,144,4.0,14.0,62,0.00,,,0.00,Wunderground v.1.15,2013-03-16 04:51:00,
2013-03-15 23:54:00,62.6,49.8,29.92,SSW,203,4.0,14.0,63,0.00,,,0.00,Wunderground v.1.15,2013-03-16 04:54:00,
2013-03-15 23:56:00,62.6,50.2,29.92,South,185,4.0,14.0,64,0.00,,,0.00,Wunderground v.1.15,2013-03-16 04:56:00,
2013-03-15 23:58:00,62.6,50.2,29.92,SSW,203,4.0,14.0,64,0.00,,,0.00,Wunderground v.1.15,2013-03-16 04:58:00,